GFSMA_prec_precacc24_057.txt.gz
Total_Precipitation_Accumulation
0.01 0.00 0.00 0.00 0.00 0.00 0.00 0.00 0.00 0.00 0.00 0.00 0.00 0.00 0.00 0.00 0.00 0.00 0.00 0.00 0.00 0.00 0.01 0.00 0.00 0.00 0.00 0.00 0.00 0.00 0.00 0.00 0.00 0.00 0.00 0.00 0.00 0.00 0.00 0.00 0.00 0.00 0.00
0.00 0.00 0.00 0.00 0.00 0.00 0.00 0.00 0.00 0.00 0.00 0.00 0.00 0.00 0.00 0.00 0.00 0.00 0.00 0.00 0.00 0.00 0.00 0.00 0.00 0.00 0.00 0.00 0.00 0.00 0.00 0.00 0.00 0.00 0.00 0.00 0.00 0.00 0.00 0.00 0.00 0.00 0.00
0.00 0.00 0.00 0.01 0.00 0.00 0.00 0.00 0.00 0.00 0.00 0.00 0.00 0.00 0.00 0.00 0.00 0.00 0.00 0.00 0.00 0.00 0.00 0.00 0.00 0.00 0.00 0.00 0.00 0.00 0.00 0.00 0.00 0.00 0.00 0.00 0.00 0.00 0.00 0.00 0.00 0.00 0.00
0.02 0.01 0.01 0.00 0.00 0.00 0.00 0.00 0.00 0.00 0.00 0.00 0.00 0.00 0.00 0.00 0.00 0.00 0.00 0.00 0.00 0.00 0.00 0.00 0.00 0.00 0.00 0.00 0.00 0.00 0.00 0.00 0.00 0.00 0.00 0.00 0.00 0.00 0.00 0.00 0.00 0.00 0.00
0.08 0.04 0.01 0.00 0.01 0.02 0.00 0.00 0.00 0.00 0.00 0.00 0.00 0.00 0.00 0.00 0.00 0.00 0.00 0.00 0.00 0.00 0.00 0.00 0.00 0.00 0.00 0.00 0.00 0.00 0.00 0.00 0.00 0.00 0.00 0.00 0.00 0.00 0.00 0.00 0.00 0.00 0.00
0.08 0.07 0.05 0.03 0.04 0.01 0.00 0.00 0.00 0.00 0.00 0.00 0.00 0.00 0.00 0.00 0.00 0.00 0.00 0.00 0.00 0.00 0.00 0.00 0.00 0.00 0.00 0.00 0.00 0.00 0.00 0.00 0.00 0.00 0.00 0.00 0.00 0.00 0.00 0.00 0.00 0.00 0.00
0.04 0.07 0.09 0.07 0.08 0.00 0.00 0.00 0.00 0.00 0.00 0.00 0.00 0.00 0.00 0.00 0.00 0.00 0.00 0.00 0.00 0.00 0.00 0.00 0.00 0.00 0.00 0.00 0.00 0.00 0.00 0.00 0.00 0.00 0.00 0.00 0.00 0.00 0.00 0.00 0.00 0.00 0.00
0.04 0.04 0.07 0.04 0.03 0.00 0.00 0.00 0.00 0.00 0.00 0.00 0.00 0.00 0.00 0.00 0.00 0.00 0.00 0.00 0.00 0.00 0.00 0.00 0.00 0.00 0.00 0.00 0.00 0.00 0.00 0.00 0.00 0.00 0.00 0.00 0.00 0.00 0.00 0.00 0.00 0.00 0.00
0.03 0.00 0.04 0.01 0.00 0.00 0.00 0.00 0.00 0.00 0.00 0.00 0.00 0.00 0.00 0.00 0.00 0.00 0.00 0.00 0.00 0.00 0.00 0.00 0.00 0.00 0.00 0.00 0.00 0.00 0.00 0.00 0.00 0.00 0.00 0.00 0.00 0.00 0.00 0.00 0.00 0.00 0.00
0.05 0.02 0.01 0.00 0.00 0.00 0.00 0.00 0.00 0.00 0.00 0.00 0.00 0.00 0.00 0.00 0.00 0.00 0.00 0.00 0.00 0.00 0.00 0.00 0.00 0.00 0.00 0.00 0.00 0.00 0.00 0.00 0.00 0.00 0.00 0.00 0.00 0.00 0.00 0.00 0.00 0.00 0.00
0.03 0.03 0.01 0.03 0.01 0.01 0.01 0.00 0.00 0.00 0.00 0.00 0.00 0.00 0.00 0.00 0.00 0.00 0.00 0.00 0.00 0.00 0.00 0.00 0.00 0.00 0.00 0.00 0.00 0.00 0.00 0.00 0.00 0.00 0.00 0.00 0.00 0.00 0.00 0.00 0.00 0.00 0.00
0.01 0.04 0.04 0.03 0.04 0.04 0.05 0.04 0.04 0.04 0.04 0.02 0.02 0.02 0.01 0.01 0.03 0.04 0.00 0.00 0.00 0.00 0.00 0.00 0.00 0.00 0.00 0.00 0.00 0.00 0.00 0.00 0.00 0.00 0.00 0.00 0.00 0.00 0.00 0.00 0.00 0.00 0.00
0.03 0.07 0.14 0.08 0.05 0.07 0.06 0.08 0.09 0.06 0.05 0.02 0.03 0.08 0.13 0.13 0.05 0.02 0.02 0.02 0.01 0.00 0.00 0.00 0.00 0.00 0.00 0.00 0.00 0.00 0.00 0.00 0.00 0.00 0.00 0.00 0.00 0.00 0.00 0.00 0.00 0.00 0.00
0.10 0.12 0.13 0.21 0.13 0.11 0.10 0.07 0.05 0.06 0.07 0.09 0.12 0.11 0.08 0.06 0.07 0.06 0.05 0.05 0.03 0.01 0.00 0.00 0.00 0.00 0.00 0.00 0.00 0.00 0.00 0.00 0.00 0.00 0.00 0.00 0.00 0.00 0.00 0.00 0.00 0.00 0.00
0.34 0.29 0.33 0.34 0.27 0.16 0.08 0.05 0.06 0.05 0.03 0.06 0.10 0.13 0.15 0.16 0.10 0.06 0.05 0.06 0.11 0.06 0.01 0.00 0.00 0.00 0.00 0.00 0.00 0.00 0.00 0.00 0.00 0.00 0.00 0.00 0.00 0.00 0.00 0.00 0.00 0.01 0.01
0.35 0.43 0.41 0.29 0.13 0.04 0.02 0.02 0.02 0.05 0.13 0.19 0.20 0.22 0.17 0.09 0.05 0.02 0.02 0.02 0.02 0.02 0.00 0.00 0.00 0.00 0.00 0.00 0.00 0.00 0.00 0.00 0.00 0.00 0.00 0.00 0.00 0.00 0.00 0.00 0.00 0.00 0.00
0.35 0.37 0.17 0.05 0.03 0.03 0.05 0.10 0.16 0.20 0.22 0.25 0.22 0.14 0.06 0.04 0.03 0.01 0.00 0.00 0.00 0.00 0.00 0.00 0.00 0.00 0.00 0.00 0.00 0.00 0.00 0.00 0.00 0.00 0.00 0.00 0.00 0.00 0.00 0.00 0.00 0.00 0.00
0.12 0.08 0.06 0.09 0.12 0.18 0.26 0.30 0.24 0.21 0.19 0.16 0.11 0.07 0.04 0.02 0.01 0.00 0.00 0.00 0.00 0.00 0.00 0.00 0.00 0.00 0.00 0.00 0.00 0.00 0.00 0.00 0.00 0.00 0.00 0.00 0.00 0.00 0.00 0.00 0.00 0.00 0.00
0.10 0.08 0.08 0.11 0.16 0.17 0.14 0.12 0.13 0.15 0.15 0.10 0.06 0.03 0.01 0.01 0.00 0.00 0.00 0.00 0.00 0.00 0.00 0.00 0.00 0.00 0.00 0.00 0.00 0.00 0.00 0.00 0.00 0.00 0.00 0.00 0.00 0.00 0.00 0.00 0.00 0.00 0.00
0.05 0.05 0.04 0.05 0.05 0.10 0.12 0.13 0.13 0.12 0.07 0.02 0.01 0.01 0.01 0.00 0.00 0.00 0.00 0.01 0.01 0.01 0.01 0.01 0.01 0.00 0.00 0.00 0.00 0.00 0.01 0.00 0.00 0.00 0.00 0.00 0.00 0.00 0.00 0.00 0.00 0.00 0.00
0.03 0.03 0.05 0.11 0.14 0.12 0.11 0.09 0.05 0.02 0.01 0.01 0.00 0.00 0.00 0.00 0.00 0.00 0.00 0.00 0.01 0.02 0.02 0.01 0.00 0.00 0.00 0.00 0.00 0.01 0.01 0.00 0.00 0.00 0.00 0.00 0.00 0.00 0.00 0.00 0.00 0.00 0.00
0.04 0.07 0.17 0.19 0.15 0.12 0.11 0.07 0.04 0.02 0.01 0.00 0.00 0.00 0.00 0.00 0.00 0.00 0.00 0.00 0.00 0.01 0.01 0.01 0.01 0.01 0.00 0.01 0.01 0.02 0.01 0.01 0.01 0.00 0.00 0.00 0.00 0.00 0.00 0.00 0.00 0.00 0.02
0.22 0.31 0.25 0.18 0.11 0.06 0.05 0.02 0.01 0.00 0.00 0.00 0.00 0.00 0.00 0.00 0.00 0.00 0.00 0.00 0.00 0.00 0.00 0.00 0.00 0.00 0.01 0.01 0.03 0.03 0.03 0.04 0.03 0.00 0.00 0.01 0.00 0.00 0.00 0.00 0.00 0.00 0.00
0.33 0.23 0.12 0.04 0.00 0.00 0.00 0.00 0.00 0.00 0.00 0.00 0.00 0.00 0.00 0.00 0.00 0.00 0.00 0.00 0.00 0.00 0.00 0.00 0.00 0.00 0.01 0.01 0.02 0.04 0.06 0.05 0.01 0.00 0.00 0.01 0.00 0.00 0.00 0.00 0.00 0.00 0.01
0.06 0.00 0.00 0.00 0.00 0.00 0.00 0.00 0.00 0.00 0.00 0.00 0.00 0.00 0.00 0.00 0.00 0.00 0.00 0.00 0.00 0.00 0.00 0.00 0.02 0.02 0.02 0.01 0.01 0.04 0.01 0.02 0.01 0.00 0.00 0.01 0.00 0.00 0.00 0.00 0.00 0.00 0.00
0.00 0.00 0.00 0.00 0.00 0.00 0.00 0.00 0.00 0.00 0.00 0.00 0.00 0.00 0.00 0.00 0.00 0.00 0.00 0.00 0.01 0.00 0.01 0.02 0.02 0.02 0.01 0.01 0.01 0.01 0.01 0.03 0.02 0.02 0.00 0.05 0.01 0.04 0.07 0.00 0.00 0.00 0.00

GFSMA_prec_precacc24_060.txt.gz
Total_Precipitation_Accumulation
0.01 0.00 0.00 0.00 0.00 0.00 0.00 0.00 0.00 0.00 0.00 0.00 0.00 0.00 0.00 0.00 0.00 0.00 0.00 0.00 0.00 0.00 0.01 0.00 0.00 0.00 0.00 0.00 0.00 0.00 0.00 0.00 0.00 0.00 0.00 0.00 0.00 0.00 0.00 0.00 0.00 0.00 0.00
0.00 0.00 0.00 0.00 0.00 0.00 0.00 0.00 0.00 0.00 0.00 0.00 0.00 0.00 0.00 0.00 0.00 0.00 0.00 0.00 0.00 0.00 0.00 0.00 0.00 0.00 0.00 0.00 0.00 0.00 0.00 0.00 0.00 0.00 0.00 0.00 0.00 0.00 0.00 0.00 0.00 0.00 0.00
0.00 0.00 0.00 0.01 0.00 0.00 0.00 0.00 0.00 0.00 0.00 0.00 0.00 0.00 0.00 0.00 0.00 0.00 0.00 0.00 0.00 0.00 0.00 0.00 0.00 0.00 0.00 0.00 0.00 0.00 0.00 0.00 0.00 0.00 0.00 0.00 0.00 0.00 0.00 0.00 0.00 0.00 0.00
0.02 0.01 0.04 0.03 0.00 0.00 0.00 0.00 0.00 0.00 0.00 0.00 0.00 0.00 0.00 0.00 0.00 0.00 0.00 0.00 0.00 0.00 0.00 0.00 0.00 0.00 0.00 0.00 0.00 0.00 0.00 0.00 0.00 0.00 0.00 0.00 0.00 0.00 0.00 0.00 0.00 0.00 0.00
0.08 0.04 0.02 0.00 0.01 0.02 0.00 0.00 0.00 0.00 0.00 0.00 0.00 0.00 0.00 0.00 0.00 0.00 0.00 0.00 0.00 0.00 0.00 0.00 0.00 0.00 0.00 0.00 0.00 0.00 0.00 0.00 0.00 0.00 0.00 0.00 0.00 0.00 0.00 0.00 0.00 0.00 0.00
0.08 0.07 0.05 0.03 0.04 0.05 0.00 0.00 0.00 0.00 0.00 0.00 0.00 0.00 0.00 0.00 0.00 0.00 0.00 0.00 0.00 0.00 0.00 0.00 0.00 0.00 0.00 0.00 0.00 0.00 0.00 0.00 0.00 0.00 0.00 0.00 0.00 0.00 0.00 0.00 0.00 0.00 0.00
0.04 0.07 0.09 0.07 0.09 0.04 0.01 0.00 0.00 0.00 0.00 0.00 0.00 0.00 0.00 0.00 0.00 0.00 0.00 0.00 0.00 0.00 0.00 0.00 0.00 0.00 0.00 0.00 0.00 0.00 0.00 0.00 0.00 0.00 0.00 0.00 0.00 0.00 0.00 0.00 0.00 0.00 0.00
0.04 0.04 0.07 0.04 0.03 0.02 0.00 0.00 0.00 0.00 0.00 0.00 0.00 0.00 0.00 0.00 0.00 0.00 0.00 0.00 0.00 0.00 0.00 0.00 0.00 0.00 0.00 0.00 0.00 0.00 0.00 0.00 0.00 0.00 0.00 0.00 0.00 0.00 0.00 0.00 0.00 0.00 0.00
0.03 0.00 0.04 0.01 0.00 0.00 0.00 0.00 0.00 0.00 0.00 0.00 0.00 0.00 0.00 0.00 0.00 0.00 0.00 0.00 0.00 0.00 0.00 0.00 0.00 0.00 0.00 0.00 0.00 0.00 0.00 0.00 0.00 0.00 0.00 0.00 0.00 0.00 0.00 0.00 0.00 0.00 0.00
0.05 0.02 0.01 0.01 0.00 0.00 0.00 0.00 0.00 0.00 0.00 0.00 0.00 0.00 0.00 0.00 0.00 0.00 0.00 0.00 0.00 0.00 0.00 0.00 0.00 0.00 0.00 0.00 0.00 0.00 0.00 0.00 0.00 0.00 0.00 0.00 0.00 0.00 0.00 0.00 0.00 0.00 0.00
0.03 0.03 0.02 0.06 0.02 0.01 0.04 0.05 0.02 0.01 0.01 0.01 0.01 0.01 0.02 0.01 0.00 0.00 0.01 0.02 0.00 0.00 0.00 0.00 0.00 0.00 0.00 0.00 0.00 0.00 0.00 0.00 0.00 0.00 0.00 0.00 0.00 0.00 0.00 0.00 0.00 0.00 0.00
0.01 0.04 0.05 0.03 0.05 0.04 0.09 0.11 0.08 0.06 0.05 0.04 0.05 0.08 0.09 0.03 0.04 0.08 0.06 0.01 0.00 0.00 0.00 0.00 0.00 0.00 0.00 0.00 0.00 0.00 0.00 0.00 0.00 0.00 0.00 0.00 0.00 0.00 0.00 0.00 0.00 0.00 0.00
0.03 0.07 0.15 0.11 0.09 0.18 0.19 0.19 0.14 0.09 0.07 0.14 0.23 0.19 0.16 0.15 0.08 0.04 0.04 0.04 0.01 0.00 0.00 0.00 0.00 0.00 0.00 0.00 0.00 0.00 0.00 0.00 0.00 0.00 0.00 0.00 0.00 0.00 0.00 0.00 0.00 0.00 0.00
0.10 0.12 0.21 0.35 0.31 0.29 0.25 0.17 0.10 0.10 0.10 0.13 0.16 0.14 0.13 0.14 0.17 0.13 0.09 0.05 0.03 0.01 0.00 0.00 0.00 0.00 0.00 0.00 0.00 0.00 0.00 0.00 0.00 0.00 0.00 0.00 0.00 0.00 0.00 0.00 0.00 0.00 0.00
0.34 0.29 0.36 0.47 0.47 0.36 0.34 0.19 0.12 0.06 0.04 0.07 0.12 0.17 0.20 0.20 0.12 0.07 0.04 0.03 0.05 0.04 0.01 0.00 0.00 0.00 0.00 0.00 0.00 0.00 0.00 0.00 0.00 0.00 0.00 0.00 0.00 0.00 0.00 0.00 0.00 0.00 0.00
0.35 0.43 0.45 0.43 0.36 0.22 0.14 0.08 0.05 0.06 0.14 0.20 0.21 0.23 0.17 0.11 0.08 0.05 0.03 0.02 0.02 0.02 0.00 0.00 0.00 0.00 0.00 0.00 0.00 0.00 0.00 0.00 0.00 0.00 0.00 0.00 0.00 0.00 0.00 0.00 0.00 0.00 0.00
0.43 0.49 0.35 0.18 0.08 0.10 0.10 0.11 0.17 0.21 0.22 0.26 0.24 0.18 0.11 0.08 0.05 0.02 0.01 0.01 0.00 0.00 0.00 0.00 0.00 0.00 0.00 0.00 0.00 0.00 0.00 0.00 0.00 0.00 0.00 0.00 0.00 0.00 0.00 0.00 0.00 0.00 0.00
0.19 0.14 0.16 0.13 0.14 0.19 0.27 0.31 0.25 0.22 0.20 0.18 0.14 0.09 0.05 0.03 0.01 0.00 0.00 0.00 0.00 0.00 0.00 0.00 0.00 0.00 0.00 0.00 0.00 0.00 0.00 0.00 0.00 0.00 0.00 0.00 0.00 0.00 0.00 0.00 0.00 0.00 0.00
0.15 0.12 0.12 0.13 0.16 0.17 0.14 0.12 0.14 0.16 0.17 0.13 0.07 0.03 0.01 0.01 0.01 0.00 0.00 0.00 0.00 0.00 0.00 0.00 0.00 0.00 0.00 0.00 0.00 0.00 0.00 0.00 0.00 0.00 0.00 0.00 0.00 0.00 0.00 0.00 0.00 0.00 0.00
0.08 0.09 0.07 0.06 0.05 0.10 0.12 0.13 0.14 0.13 0.07 0.03 0.01 0.01 0.01 0.01 0.00 0.00 0.00 0.01 0.01 0.01 0.01 0.01 0.01 0.00 0.00 0.00 0.00 0.00 0.00 0.00 0.01 0.01 0.01 0.00 0.00 0.00 0.00 0.00 0.00 0.00 0.00
0.04 0.04 0.07 0.12 0.15 0.13 0.12 0.10 0.06 0.03 0.02 0.01 0.00 0.00 0.00 0.00 0.00 0.00 0.00 0.01 0.01 0.02 0.02 0.01 0.00 0.00 0.00 0.00 0.00 0.01 0.01 0.00 0.00 0.00 0.00 0.00 0.01 0.00 0.00 0.00 0.00 0.00 0.00
0.06 0.09 0.19 0.21 0.16 0.13 0.13 0.08 0.04 0.02 0.01 0.00 0.00 0.00 0.00 0.00 0.00 0.00 0.00 0.00 0.01 0.01 0.01 0.01 0.01 0.01 0.00 0.00 0.01 0.02 0.02 0.02 0.02 0.00 0.01 0.01 0.01 0.00 0.00 0.00 0.00 0.00 0.00
0.23 0.33 0.26 0.19 0.12 0.06 0.05 0.02 0.01 0.00 0.00 0.00 0.00 0.00 0.00 0.00 0.00 0.00 0.00 0.00 0.00 0.00 0.00 0.00 0.00 0.00 0.01 0.01 0.03 0.03 0.04 0.05 0.04 0.01 0.01 0.01 0.00 0.00 0.00 0.00 0.00 0.00 0.00
0.33 0.23 0.12 0.04 0.00 0.00 0.00 0.00 0.00 0.00 0.00 0.00 0.00 0.00 0.00 0.00 0.00 0.00 0.00 0.00 0.00 0.00 0.00 0.00 0.00 0.00 0.01 0.01 0.02 0.04 0.06 0.05 0.02 0.00 0.01 0.01 0.00 0.00 0.00 0.00 0.00 0.00 0.00
0.06 0.00 0.00 0.00 0.00 0.00 0.00 0.00 0.00 0.00 0.00 0.00 0.00 0.00 0.00 0.00 0.00 0.00 0.00 0.00 0.00 0.00 0.00 0.00 0.02 0.02 0.02 0.01 0.01 0.03 0.02 0.04 0.03 0.00 0.01 0.02 0.00 0.00 0.00 0.00 0.00 0.00 0.00
0.00 0.00 0.00 0.00 0.00 0.00 0.00 0.00 0.00 0.00 0.00 0.00 0.00 0.00 0.00 0.00 0.00 0.00 0.00 0.00 0.01 0.00 0.01 0.02 0.02 0.02 0.01 0.01 0.01 0.01 0.01 0.05 0.05 0.03 0.00 0.02 0.01 0.04 0.07 0.00 0.00 0.00 0.00

GFSMA_prec_precacc24_063.txt.gz
Total_Precipitation_Accumulation
0.01 0.00 0.00 0.00 0.00 0.00 0.00 0.00 0.00 0.00 0.00 0.00 0.00 0.00 0.00 0.00 0.00 0.00 0.00 0.00 0.00 0.00 0.01 0.00 0.00 0.00 0.00 0.00 0.00 0.00 0.00 0.00 0.00 0.00 0.00 0.00 0.00 0.00 0.00 0.00 0.00 0.00 0.00
0.00 0.00 0.00 0.00 0.00 0.00 0.00 0.00 0.00 0.00 0.00 0.00 0.00 0.00 0.00 0.00 0.00 0.00 0.00 0.00 0.00 0.00 0.00 0.00 0.00 0.00 0.00 0.00 0.00 0.00 0.00 0.00 0.00 0.00 0.00 0.00 0.00 0.00 0.00 0.00 0.00 0.00 0.00
0.00 0.00 0.00 0.01 0.00 0.00 0.00 0.00 0.00 0.00 0.00 0.00 0.00 0.00 0.00 0.00 0.00 0.00 0.00 0.00 0.00 0.00 0.00 0.00 0.00 0.00 0.00 0.00 0.00 0.00 0.00 0.00 0.00 0.00 0.00 0.00 0.00 0.00 0.00 0.00 0.00 0.00 0.00
0.02 0.01 0.04 0.03 0.00 0.00 0.00 0.00 0.00 0.00 0.00 0.00 0.00 0.00 0.00 0.00 0.00 0.00 0.00 0.00 0.00 0.00 0.00 0.00 0.00 0.00 0.00 0.00 0.00 0.00 0.00 0.00 0.00 0.00 0.00 0.00 0.00 0.00 0.00 0.00 0.00 0.00 0.00
0.08 0.04 0.02 0.00 0.01 0.02 0.00 0.00 0.00 0.00 0.00 0.00 0.00 0.00 0.00 0.00 0.00 0.00 0.00 0.00 0.00 0.00 0.00 0.00 0.00 0.00 0.00 0.00 0.00 0.00 0.00 0.00 0.00 0.00 0.00 0.00 0.00 0.00 0.00 0.00 0.00 0.00 0.00
0.08 0.07 0.05 0.03 0.05 0.05 0.00 0.00 0.00 0.00 0.00 0.00 0.00 0.00 0.00 0.00 0.00 0.00 0.00 0.00 0.00 0.00 0.00 0.00 0.00 0.00 0.00 0.00 0.00 0.00 0.00 0.00 0.00 0.00 0.00 0.00 0.00 0.00 0.00 0.00 0.00 0.00 0.00
0.05 0.07 0.09 0.07 0.09 0.04 0.01 0.00 0.00 0.00 0.00 0.00 0.00 0.00 0.00 0.00 0.00 0.00 0.00 0.00 0.00 0.00 0.00 0.00 0.00 0.00 0.00 0.00 0.00 0.00 0.00 0.00 0.00 0.00 0.00 0.00 0.00 0.00 0.00 0.00 0.00 0.00 0.00
0.04 0.04 0.07 0.04 0.03 0.02 0.02 0.00 0.00 0.00 0.00 0.00 0.00 0.00 0.00 0.00 0.00 0.00 0.00 0.00 0.00 0.00 0.00 0.00 0.00 0.00 0.00 0.00 0.00 0.00 0.00 0.00 0.00 0.00 0.00 0.00 0.00 0.00 0.00 0.00 0.00 0.00 0.00
0.03 0.00 0.04 0.01 0.00 0.00 0.00 0.00 0.00 0.01 0.01 0.00 0.00 0.00 0.00 0.00 0.00 0.00 0.00 0.00 0.00 0.00 0.00 0.00 0.00 0.00 0.00 0.00 0.00 0.00 0.00 0.00 0.00 0.00 0.00 0.00 0.00 0.00 0.00 0.00 0.00 0.00 0.00
0.05 0.02 0.01 0.01 0.00 0.00 0.00 0.00 0.02 0.02 0.03 0.02 0.01 0.00 0.00 0.00 0.00 0.00 0.00 0.00 0.00 0.00 0.00 0.00 0.00 0.00 0.00 0.00 0.00 0.00 0.00 0.00 0.00 0.00 0.00 0.00 0.00 0.00 0.00 0.00 0.00 0.00 0.00
0.03 0.03 0.02 0.06 0.02 0.01 0.04 0.05 0.03 0.05 0.05 0.03 0.03 0.02 0.03 0.04 0.03 0.01 0.01 0.02 0.02 0.00 0.00 0.00 0.00 0.00 0.00 0.00 0.00 0.00 0.00 0.00 0.00 0.00 0.00 0.00 0.00 0.00 0.00 0.00 0.00 0.00 0.00
0.01 0.04 0.05 0.03 0.06 0.04 0.09 0.12 0.16 0.12 0.10 0.08 0.08 0.11 0.11 0.10 0.08 0.11 0.07 0.02 0.01 0.00 0.00 0.00 0.00 0.00 0.00 0.00 0.00 0.00 0.00 0.00 0.00 0.00 0.00 0.00 0.00 0.00 0.00 0.00 0.00 0.00 0.00
0.03 0.07 0.15 0.11 0.09 0.20 0.24 0.31 0.28 0.19 0.18 0.18 0.26 0.22 0.18 0.18 0.11 0.08 0.08 0.06 0.03 0.00 0.00 0.00 0.00 0.00 0.00 0.00 0.00 0.00 0.00 0.00 0.00 0.00 0.00 0.00 0.00 0.00 0.00 0.00 0.00 0.00 0.00
0.10 0.13 0.21 0.35 0.31 0.32 0.32 0.33 0.38 0.50 0.28 0.18 0.18 0.17 0.17 0.18 0.20 0.16 0.11 0.06 0.03 0.01 0.00 0.00 0.00 0.00 0.00 0.00 0.00 0.00 0.00 0.00 0.00 0.00 0.00 0.00 0.00 0.00 0.00 0.00 0.00 0.00 0.00
0.36 0.30 0.36 0.47 0.48 0.40 0.50 0.55 0.45 0.22 0.08 0.08 0.14 0.19 0.21 0.21 0.13 0.07 0.04 0.02 0.03 0.03 0.01 0.00 0.00 0.00 0.00 0.00 0.00 0.00 0.00 0.00 0.00 0.00 0.00 0.00 0.00 0.00 0.00 0.00 0.00 0.00 0.00
0.47 0.51 0.47 0.47 0.41 0.30 0.31 0.32 0.20 0.10 0.15 0.20 0.22 0.24 0.18 0.12 0.08 0.06 0.05 0.03 0.02 0.01 0.01 0.00 0.00 0.00 0.00 0.00 0.00 0.00 0.00 0.00 0.00 0.00 0.00 0.00 0.00 0.00 0.00 0.00 0.00 0.00 0.00
0.63 0.64 0.41 0.26 0.20 0.31 0.27 0.18 0.22 0.22 0.23 0.26 0.25 0.18 0.12 0.08 0.05 0.03 0.01 0.01 0.01 0.00 0.00 0.00 0.00 0.00 0.00 0.00 0.00 0.00 0.00 0.00 0.00 0.00 0.00 0.00 0.00 0.00 0.00 0.00 0.00 0.00 0.00
0.72 0.53 0.30 0.19 0.20 0.24 0.31 0.34 0.26 0.22 0.20 0.18 0.15 0.10 0.06 0.03 0.02 0.01 0.01 0.01 0.00 0.00 0.00 0.00 0.00 0.00 0.00 0.00 0.00 0.00 0.00 0.00 0.00 0.00 0.00 0.00 0.00 0.00 0.00 0.00 0.00 0.00 0.00
0.35 0.23 0.22 0.20 0.25 0.21 0.18 0.14 0.14 0.17 0.18 0.14 0.08 0.04 0.03 0.02 0.02 0.01 0.00 0.00 0.00 0.00 0.00 0.00 0.00 0.00 0.00 0.00 0.00 0.00 0.00 0.00 0.00 0.00 0.00 0.00 0.00 0.00 0.00 0.00 0.00 0.00 0.01
0.12 0.13 0.09 0.09 0.10 0.14 0.14 0.13 0.15 0.13 0.07 0.03 0.01 0.01 0.01 0.01 0.00 0.00 0.00 0.01 0.01 0.01 0.01 0.01 0.01 0.00 0.00 0.00 0.00 0.00 0.00 0.00 0.01 0.01 0.01 0.00 0.00 0.00 0.00 0.00 0.00 0.01 0.01
0.10 0.10 0.10 0.15 0.18 0.16 0.13 0.11 0.06 0.04 0.02 0.01 0.00 0.01 0.00 0.00 0.00 0.00 0.00 0.01 0.01 0.02 0.02 0.01 0.00 0.00 0.00 0.00 0.00 0.01 0.01 0.00 0.00 0.00 0.00 0.00 0.01 0.00 0.01 0.01 0.02 0.02 0.02
0.12 0.12 0.21 0.24 0.20 0.16 0.16 0.10 0.05 0.02 0.01 0.00 0.00 0.00 0.00 0.00 0.00 0.00 0.00 0.00 0.01 0.01 0.01 0.01 0.01 0.01 0.00 0.00 0.01 0.02 0.02 0.03 0.02 0.00 0.01 0.01 0.01 0.00 0.00 0.01 0.01 0.01 0.00
0.22 0.31 0.27 0.22 0.15 0.08 0.08 0.03 0.02 0.00 0.00 0.00 0.00 0.00 0.00 0.00 0.00 0.00 0.00 0.00 0.00 0.00 0.00 0.00 0.00 0.00 0.01 0.01 0.03 0.03 0.04 0.05 0.03 0.01 0.02 0.02 0.01 0.01 0.01 0.01 0.01 0.00 0.00
0.30 0.24 0.15 0.06 0.02 0.01 0.01 0.00 0.00 0.00 0.00 0.00 0.00 0.00 0.00 0.00 0.00 0.00 0.00 0.00 0.00 0.00 0.00 0.00 0.00 0.00 0.01 0.01 0.02 0.04 0.04 0.03 0.02 0.01 0.01 0.03 0.01 0.01 0.01 0.01 0.00 0.00 0.00
0.08 0.02 0.02 0.01 0.00 0.00 0.00 0.00 0.00 0.00 0.00 0.00 0.00 0.00 0.00 0.00 0.00 0.00 0.00 0.00 0.00 0.00 0.00 0.00 0.02 0.02 0.02 0.01 0.01 0.03 0.02 0.04 0.03 0.00 0.01 0.02 0.01 0.01 0.00 0.00 0.00 0.00 0.00
0.01 0.01 0.00 0.00 0.00 0.00 0.00 0.00 0.00 0.00 0.00 0.00 0.00 0.00 0.00 0.00 0.00 0.00 0.00 0.00 0.01 0.00 0.01 0.02 0.02 0.02 0.01 0.01 0.01 0.01 0.01 0.06 0.06 0.04 0.00 0.02 0.01 0.02 0.06 0.01 0.01 0.00 0.00

GFSMA_prec_precacc24_069.txt.gz
Total_Precipitation_Accumulation
0.01 0.00 0.00 0.00 0.00 0.00 0.00 0.00 0.00 0.00 0.00 0.00 0.00 0.00 0.00 0.00 0.00 0.00 0.00 0.00 0.00 0.00 0.01 0.00 0.00 0.00 0.00 0.00 0.00 0.00 0.00 0.00 0.00 0.00 0.00 0.00 0.00 0.00 0.00 0.00 0.00 0.00 0.00
0.00 0.00 0.00 0.00 0.00 0.00 0.00 0.00 0.00 0.00 0.00 0.00 0.00 0.00 0.00 0.00 0.00 0.00 0.00 0.00 0.00 0.00 0.00 0.00 0.00 0.00 0.00 0.00 0.00 0.00 0.00 0.00 0.00 0.00 0.00 0.00 0.00 0.00 0.00 0.00 0.00 0.00 0.00
0.00 0.00 0.00 0.01 0.00 0.00 0.00 0.00 0.00 0.00 0.00 0.00 0.00 0.00 0.00 0.00 0.00 0.00 0.00 0.00 0.00 0.00 0.00 0.00 0.00 0.00 0.00 0.00 0.00 0.00 0.00 0.00 0.00 0.00 0.00 0.00 0.00 0.00 0.00 0.00 0.00 0.00 0.00
0.01 0.01 0.04 0.03 0.00 0.00 0.00 0.00 0.00 0.00 0.00 0.00 0.00 0.00 0.00 0.00 0.00 0.00 0.00 0.00 0.00 0.00 0.00 0.00 0.00 0.00 0.00 0.00 0.00 0.00 0.00 0.00 0.00 0.00 0.00 0.00 0.00 0.00 0.00 0.00 0.00 0.00 0.00
0.07 0.04 0.02 0.00 0.01 0.02 0.00 0.00 0.00 0.00 0.00 0.00 0.00 0.00 0.00 0.00 0.00 0.00 0.00 0.00 0.00 0.00 0.00 0.00 0.00 0.00 0.00 0.00 0.00 0.00 0.00 0.00 0.00 0.00 0.00 0.00 0.00 0.00 0.00 0.00 0.00 0.00 0.00
0.08 0.07 0.05 0.03 0.05 0.05 0.00 0.00 0.00 0.00 0.00 0.00 0.00 0.00 0.00 0.00 0.00 0.00 0.00 0.00 0.00 0.00 0.00 0.00 0.00 0.00 0.00 0.00 0.00 0.00 0.00 0.00 0.00 0.00 0.00 0.00 0.00 0.00 0.00 0.00 0.00 0.00 0.00
0.05 0.07 0.09 0.08 0.10 0.05 0.02 0.00 0.01 0.01 0.01 0.00 0.00 0.00 0.00 0.00 0.00 0.00 0.00 0.00 0.00 0.00 0.00 0.00 0.00 0.00 0.00 0.00 0.00 0.00 0.00 0.00 0.00 0.00 0.00 0.00 0.00 0.00 0.00 0.00 0.00 0.00 0.00
0.05 0.08 0.09 0.05 0.05 0.05 0.05 0.03 0.04 0.02 0.03 0.01 0.01 0.00 0.00 0.00 0.00 0.00 0.00 0.00 0.00 0.00 0.00 0.00 0.00 0.00 0.00 0.00 0.00 0.00 0.00 0.00 0.00 0.00 0.00 0.00 0.00 0.00 0.00 0.00 0.00 0.00 0.00
0.05 0.03 0.11 0.09 0.08 0.05 0.05 0.06 0.06 0.04 0.03 0.02 0.01 0.01 0.00 0.00 0.00 0.00 0.00 0.00 0.00 0.00 0.00 0.00 0.00 0.00 0.00 0.00 0.00 0.00 0.00 0.00 0.00 0.00 0.00 0.00 0.00 0.00 0.00 0.00 0.00 0.00 0.00
0.06 0.02 0.02 0.03 0.05 0.05 0.05 0.05 0.06 0.03 0.03 0.03 0.02 0.01 0.00 0.00 0.00 0.00 0.00 0.00 0.00 0.00 0.00 0.00 0.00 0.00 0.00 0.00 0.00 0.00 0.00 0.00 0.00 0.00 0.00 0.00 0.00 0.00 0.00 0.00 0.00 0.00 0.00
0.04 0.04 0.02 0.07 0.03 0.02 0.05 0.06 0.05 0.05 0.06 0.05 0.05 0.04 0.04 0.04 0.03 0.02 0.02 0.02 0.02 0.00 0.00 0.00 0.00 0.00 0.00 0.00 0.00 0.00 0.00 0.00 0.00 0.00 0.00 0.00 0.00 0.00 0.00 0.00 0.00 0.00 0.00
0.01 0.04 0.05 0.04 0.06 0.04 0.09 0.12 0.16 0.13 0.19 0.18 0.14 0.16 0.15 0.11 0.09 0.13 0.11 0.04 0.02 0.02 0.01 0.01 0.01 0.00 0.00 0.00 0.00 0.00 0.00 0.00 0.00 0.00 0.00 0.00 0.00 0.00 0.00 0.01 0.02 0.01 0.00
0.02 0.07 0.15 0.11 0.08 0.20 0.22 0.25 0.25 0.26 0.32 0.41 0.54 0.51 0.43 0.37 0.21 0.16 0.14 0.12 0.09 0.06 0.02 0.00 0.00 0.00 0.00 0.00 0.00 0.00 0.00 0.00 0.00 0.00 0.00 0.00 0.00 0.00 0.00 0.01 0.02 0.02 0.02
0.08 0.12 0.21 0.35 0.28 0.25 0.24 0.30 0.44 0.61 0.70 0.63 0.57 0.49 0.40 0.31 0.31 0.28 0.24 0.17 0.10 0.03 0.01 0.00 0.00 0.00 0.00 0.00 0.00 0.00 0.00 0.00 0.00 0.00 0.00 0.00 0.00 0.00 0.01 0.02 0.01 0.01 0.01
0.34 0.28 0.34 0.42 0.42 0.38 0.50 0.57 0.54 0.38 0.26 0.21 0.24 0.28 0.28 0.25 0.18 0.13 0.10 0.07 0.05 0.03 0.01 0.00 0.00 0.00 0.00 0.00 0.00 0.00 0.00 0.00 0.00 0.00 0.00 0.00 0.00 0.00 0.00 0.01 0.01 0.01 0.01
0.45 0.50 0.47 0.48 0.42 0.31 0.31 0.34 0.30 0.22 0.23 0.25 0.24 0.26 0.20 0.14 0.11 0.09 0.08 0.06 0.05 0.03 0.01 0.00 0.00 0.00 0.00 0.00 0.00 0.00 0.00 0.00 0.00 0.00 0.00 0.00 0.00 0.00 0.00 0.00 0.01 0.01 0.01
0.62 0.67 0.47 0.35 0.29 0.42 0.46 0.33 0.31 0.31 0.31 0.34 0.31 0.23 0.16 0.12 0.07 0.04 0.02 0.01 0.01 0.00 0.01 0.00 0.00 0.00 0.00 0.00 0.00 0.00 0.00 0.00 0.00 0.00 0.00 0.00 0.00 0.00 0.00 0.00 0.00 0.00 0.01
0.71 0.56 0.37 0.29 0.30 0.33 0.51 0.65 0.57 0.50 0.47 0.41 0.32 0.19 0.11 0.07 0.05 0.03 0.02 0.03 0.02 0.01 0.01 0.00 0.00 0.00 0.00 0.00 0.00 0.00 0.00 0.00 0.00 0.00 0.00 0.00 0.00 0.00 0.00 0.00 0.00 0.00 0.00
0.35 0.31 0.32 0.28 0.29 0.29 0.30 0.30 0.31 0.33 0.32 0.27 0.18 0.10 0.06 0.05 0.04 0.03 0.03 0.03 0.01 0.00 0.00 0.00 0.00 0.00 0.00 0.00 0.00 0.00 0.00 0.00 0.00 0.00 0.00 0.00 0.00 0.00 0.00 0.00 0.00 0.00 0.01
0.14 0.17 0.13 0.13 0.13 0.14 0.17 0.22 0.26 0.25 0.16 0.09 0.05 0.04 0.04 0.04 0.03 0.03 0.02 0.02 0.01 0.01 0.01 0.01 0.01 0.00 0.00 0.00 0.00 0.00 0.00 0.00 0.01 0.01 0.01 0.00 0.00 0.00 0.00 0.00 0.00 0.01 0.01
0.11 0.15 0.12 0.10 0.11 0.13 0.16 0.18 0.15 0.08 0.05 0.06 0.04 0.03 0.02 0.05 0.04 0.02 0.01 0.01 0.01 0.02 0.02 0.01 0.00 0.00 0.00 0.00 0.00 0.01 0.01 0.00 0.00 0.00 0.00 0.00 0.01 0.00 0.01 0.01 0.02 0.02 0.02
0.19 0.20 0.20 0.18 0.15 0.17 0.30 0.23 0.13 0.06 0.03 0.03 0.03 0.01 0.03 0.04 0.02 0.02 0.01 0.01 0.01 0.01 0.01 0.01 0.01 0.01 0.00 0.00 0.01 0.02 0.02 0.02 0.02 0.00 0.01 0.01 0.01 0.00 0.00 0.01 0.01 0.01 0.02
0.21 0.22 0.21 0.23 0.17 0.14 0.24 0.20 0.14 0.04 0.03 0.03 0.02 0.02 0.02 0.03 0.04 0.00 0.01 0.00 0.00 0.00 0.00 0.00 0.00 0.00 0.01 0.01 0.03 0.03 0.04 0.04 0.02 0.01 0.02 0.02 0.01 0.01 0.01 0.01 0.01 0.00 0.00
0.15 0.17 0.16 0.13 0.13 0.14 0.17 0.10 0.09 0.02 0.03 0.03 0.02 0.02 0.02 0.01 0.01 0.00 0.00 0.00 0.00 0.00 0.00 0.00 0.00 0.00 0.01 0.01 0.02 0.04 0.04 0.03 0.02 0.01 0.01 0.03 0.01 0.01 0.01 0.01 0.01 0.02 0.04
0.09 0.07 0.07 0.07 0.07 0.08 0.10 0.04 0.03 0.00 0.02 0.03 0.03 0.03 0.01 0.00 0.01 0.01 0.00 0.00 0.00 0.00 0.00 0.00 0.02 0.02 0.02 0.01 0.01 0.03 0.02 0.04 0.03 0.00 0.01 0.02 0.01 0.01 0.00 0.00 0.00 0.01 0.02
0.06 0.05 0.05 0.05 0.08 0.05 0.08 0.04 0.02 0.01 0.03 0.04 0.04 0.03 0.01 0.00 0.00 0.00 0.00 0.00 0.01 0.00 0.01 0.02 0.02 0.02 0.01 0.01 0.01 0.01 0.01 0.06 0.06 0.04 0.00 0.02 0.01 0.02 0.06 0.01 0.01 0.02 0.04

GFSMA_prec_precacc24_072.txt.gz
Total_Precipitation_Accumulation
0.01 0.00 0.00 0.00 0.00 0.00 0.00 0.00 0.00 0.00 0.00 0.00 0.00 0.00 0.00 0.00 0.00 0.00 0.00 0.00 0.00 0.00 0.00 0.00 0.00 0.00 0.00 0.00 0.00 0.00 0.00 0.00 0.00 0.00 0.00 0.00 0.00 0.00 0.00 0.00 0.00 0.00 0.00
0.00 0.00 0.00 0.00 0.00 0.00 0.00 0.00 0.00 0.00 0.00 0.00 0.00 0.00 0.00 0.00 0.00 0.00 0.00 0.00 0.00 0.00 0.00 0.00 0.00 0.00 0.00 0.00 0.00 0.00 0.00 0.00 0.00 0.00 0.00 0.00 0.00 0.00 0.00 0.00 0.00 0.00 0.00
0.00 0.00 0.00 0.01 0.00 0.00 0.00 0.00 0.00 0.00 0.00 0.00 0.00 0.00 0.00 0.00 0.00 0.00 0.00 0.00 0.00 0.00 0.00 0.00 0.00 0.00 0.00 0.00 0.00 0.00 0.00 0.00 0.00 0.00 0.00 0.00 0.00 0.00 0.00 0.00 0.00 0.00 0.00
0.01 0.00 0.04 0.03 0.00 0.00 0.00 0.00 0.00 0.00 0.00 0.00 0.00 0.00 0.00 0.00 0.00 0.00 0.00 0.00 0.00 0.00 0.00 0.00 0.00 0.00 0.00 0.00 0.00 0.00 0.00 0.00 0.00 0.00 0.00 0.00 0.00 0.00 0.00 0.00 0.00 0.00 0.00
0.05 0.04 0.02 0.00 0.01 0.02 0.00 0.00 0.00 0.00 0.00 0.00 0.00 0.00 0.00 0.00 0.00 0.00 0.00 0.00 0.00 0.00 0.00 0.00 0.00 0.00 0.00 0.00 0.00 0.00 0.00 0.00 0.00 0.00 0.00 0.00 0.00 0.00 0.00 0.00 0.00 0.00 0.00
0.07 0.06 0.05 0.03 0.05 0.05 0.00 0.00 0.00 0.00 0.00 0.00 0.00 0.00 0.00 0.00 0.00 0.00 0.00 0.00 0.00 0.00 0.00 0.00 0.00 0.00 0.00 0.00 0.00 0.00 0.00 0.00 0.00 0.00 0.00 0.00 0.00 0.00 0.00 0.00 0.00 0.00 0.00
0.04 0.07 0.09 0.08 0.10 0.05 0.02 0.00 0.01 0.03 0.01 0.00 0.00 0.00 0.00 0.00 0.00 0.00 0.00 0.00 0.00 0.00 0.00 0.00 0.00 0.00 0.00 0.00 0.00 0.00 0.00 0.00 0.00 0.00 0.00 0.00 0.00 0.00 0.00 0.00 0.00 0.00 0.00
0.05 0.08 0.09 0.05 0.05 0.05 0.05 0.03 0.04 0.03 0.05 0.05 0.03 0.02 0.00 0.01 0.00 0.00 0.00 0.00 0.00 0.00 0.00 0.00 0.00 0.00 0.00 0.00 0.00 0.00 0.00 0.00 0.00 0.00 0.00 0.00 0.00 0.00 0.00 0.00 0.00 0.00 0.00
0.05 0.03 0.11 0.09 0.08 0.05 0.05 0.06 0.06 0.04 0.04 0.05 0.04 0.02 0.01 0.02 0.03 0.00 0.00 0.00 0.00 0.00 0.00 0.00 0.00 0.00 0.00 0.00 0.00 0.00 0.00 0.00 0.00 0.00 0.00 0.00 0.00 0.00 0.00 0.00 0.00 0.00 0.00
0.06 0.03 0.02 0.04 0.05 0.05 0.08 0.07 0.06 0.04 0.06 0.11 0.03 0.02 0.00 0.02 0.02 0.01 0.00 0.00 0.00 0.00 0.00 0.00 0.00 0.00 0.00 0.00 0.00 0.00 0.00 0.00 0.00 0.00 0.00 0.00 0.00 0.00 0.00 0.00 0.00 0.00 0.00
0.06 0.05 0.03 0.09 0.05 0.03 0.11 0.13 0.07 0.06 0.07 0.12 0.09 0.05 0.04 0.04 0.03 0.02 0.04 0.04 0.02 0.01 0.01 0.02 0.01 0.00 0.00 0.00 0.00 0.00 0.00 0.00 0.00 0.00 0.00 0.00 0.00 0.00 0.01 0.01 0.01 0.01 0.00
0.05 0.05 0.05 0.06 0.10 0.08 0.14 0.18 0.21 0.19 0.22 0.21 0.17 0.18 0.15 0.12 0.10 0.13 0.11 0.06 0.05 0.03 0.02 0.02 0.01 0.00 0.00 0.00 0.00 0.00 0.00 0.00 0.00 0.00 0.00 0.00 0.00 0.00 0.01 0.02 0.05 0.06 0.05
0.01 0.05 0.14 0.11 0.09 0.22 0.25 0.28 0.30 0.31 0.35 0.44 0.56 0.51 0.43 0.37 0.23 0.19 0.22 0.21 0.21 0.16 0.10 0.04 0.01 0.00 0.00 0.00 0.00 0.00 0.00 0.00 0.00 0.00 0.00 0.00 0.00 0.00 0.00 0.01 0.02 0.03 0.04
0.07 0.10 0.20 0.35 0.29 0.26 0.27 0.33 0.45 0.62 0.70 0.63 0.58 0.50 0.40 0.31 0.32 0.31 0.28 0.23 0.16 0.07 0.03 0.01 0.00 0.00 0.00 0.00 0.00 0.00 0.00 0.00 0.00 0.00 0.00 0.00 0.00 0.00 0.01 0.02 0.01 0.01 0.01
0.31 0.26 0.33 0.42 0.42 0.38 0.51 0.58 0.54 0.37 0.26 0.21 0.24 0.28 0.29 0.27 0.21 0.15 0.12 0.09 0.09 0.06 0.02 0.01 0.00 0.00 0.00 0.00 0.00 0.00 0.00 0.00 0.00 0.00 0.00 0.00 0.00 0.00 0.00 0.01 0.01 0.01 0.01
0.41 0.48 0.47 0.48 0.42 0.30 0.31 0.34 0.30 0.20 0.21 0.24 0.23 0.26 0.21 0.15 0.11 0.09 0.08 0.06 0.06 0.04 0.02 0.00 0.00 0.00 0.00 0.00 0.00 0.00 0.00 0.00 0.00 0.00 0.00 0.00 0.00 0.00 0.00 0.00 0.01 0.01 0.01
0.60 0.65 0.46 0.35 0.29 0.41 0.44 0.30 0.26 0.28 0.30 0.31 0.31 0.25 0.18 0.16 0.12 0.09 0.06 0.05 0.04 0.03 0.02 0.00 0.00 0.00 0.00 0.00 0.00 0.00 0.00 0.00 0.00 0.00 0.00 0.00 0.00 0.00 0.00 0.00 0.00 0.00 0.01
0.68 0.54 0.35 0.26 0.26 0.32 0.47 0.58 0.51 0.45 0.43 0.44 0.41 0.33 0.27 0.25 0.26 0.26 0.19 0.09 0.06 0.04 0.02 0.01 0.01 0.00 0.00 0.00 0.00 0.00 0.00 0.00 0.00 0.00 0.00 0.00 0.00 0.00 0.00 0.00 0.00 0.00 0.00
0.33 0.29 0.30 0.26 0.26 0.23 0.23 0.25 0.27 0.34 0.40 0.41 0.43 0.41 0.33 0.25 0.18 0.14 0.12 0.10 0.07 0.04 0.01 0.01 0.00 0.00 0.00 0.00 0.00 0.00 0.00 0.00 0.00 0.00 0.00 0.00 0.00 0.00 0.00 0.00 0.00 0.00 0.01
0.13 0.17 0.12 0.11 0.10 0.12 0.14 0.17 0.22 0.26 0.24 0.22 0.22 0.26 0.34 0.36 0.29 0.16 0.07 0.04 0.03 0.02 0.01 0.02 0.01 0.00 0.00 0.00 0.00 0.00 0.00 0.00 0.01 0.01 0.01 0.00 0.00 0.00 0.00 0.00 0.00 0.01 0.01
0.11 0.15 0.11 0.08 0.08 0.10 0.12 0.14 0.13 0.12 0.14 0.17 0.16 0.16 0.12 0.10 0.08 0.04 0.02 0.01 0.01 0.03 0.02 0.01 0.00 0.00 0.00 0.00 0.00 0.01 0.01 0.00 0.00 0.00 0.00 0.00 0.01 0.00 0.01 0.01 0.02 0.02 0.02
0.19 0.19 0.19 0.17 0.13 0.14 0.25 0.19 0.11 0.05 0.05 0.05 0.05 0.03 0.04 0.08 0.04 0.05 0.04 0.03 0.02 0.01 0.01 0.01 0.01 0.01 0.00 0.00 0.01 0.02 0.02 0.02 0.02 0.00 0.01 0.01 0.01 0.00 0.00 0.01 0.01 0.01 0.02
0.20 0.21 0.19 0.19 0.15 0.12 0.22 0.19 0.15 0.04 0.04 0.04 0.03 0.03 0.03 0.06 0.07 0.01 0.03 0.03 0.01 0.01 0.00 0.00 0.00 0.00 0.01 0.01 0.03 0.03 0.04 0.04 0.02 0.01 0.02 0.02 0.01 0.01 0.01 0.01 0.01 0.00 0.00
0.13 0.15 0.14 0.13 0.13 0.14 0.17 0.11 0.12 0.04 0.05 0.06 0.06 0.04 0.04 0.04 0.06 0.04 0.01 0.01 0.01 0.01 0.01 0.00 0.00 0.00 0.01 0.01 0.02 0.04 0.04 0.03 0.02 0.01 0.01 0.03 0.01 0.01 0.01 0.01 0.01 0.02 0.04
0.09 0.07 0.08 0.08 0.09 0.10 0.14 0.08 0.06 0.01 0.04 0.07 0.07 0.07 0.09 0.08 0.16 0.12 0.07 0.06 0.02 0.00 0.00 0.00 0.02 0.02 0.02 0.01 0.01 0.03 0.02 0.04 0.03 0.00 0.01 0.02 0.01 0.01 0.00 0.00 0.00 0.01 0.02
0.07 0.06 0.06 0.06 0.10 0.06 0.11 0.06 0.03 0.01 0.03 0.06 0.08 0.10 0.14 0.07 0.09 0.04 0.02 0.01 0.00 0.00 0.01 0.02 0.02 0.02 0.01 0.01 0.01 0.01 0.01 0.06 0.06 0.04 0.00 0.02 0.01 0.02 0.06 0.01 0.01 0.02 0.04

GFSMA_prec_precacc24_075.txt.gz
Total_Precipitation_Accumulation
0.02 0.01 0.01 0.00 0.00 0.00 0.00 0.00 0.00 0.00 0.00 0.00 0.00 0.00 0.00 0.00 0.00 0.00 0.00 0.00 0.00 0.00 0.00 0.00 0.00 0.00 0.00 0.00 0.00 0.00 0.00 0.00 0.00 0.00 0.00 0.00 0.00 0.00 0.00 0.00 0.00 0.00 0.00
0.01 0.01 0.01 0.00 0.00 0.00 0.00 0.00 0.00 0.00 0.00 0.00 0.00 0.00 0.00 0.00 0.00 0.00 0.00 0.00 0.00 0.00 0.00 0.00 0.00 0.00 0.00 0.00 0.00 0.00 0.00 0.00 0.00 0.00 0.00 0.00 0.00 0.00 0.00 0.00 0.00 0.00 0.00
0.00 0.00 0.01 0.01 0.00 0.00 0.00 0.00 0.00 0.00 0.00 0.00 0.00 0.00 0.00 0.00 0.00 0.00 0.00 0.00 0.00 0.00 0.00 0.00 0.00 0.00 0.00 0.00 0.00 0.00 0.00 0.00 0.00 0.00 0.00 0.00 0.00 0.00 0.00 0.00 0.00 0.00 0.00
0.00 0.00 0.04 0.03 0.00 0.00 0.00 0.00 0.00 0.00 0.00 0.00 0.00 0.00 0.00 0.00 0.00 0.00 0.00 0.00 0.00 0.00 0.00 0.00 0.00 0.00 0.00 0.00 0.00 0.00 0.00 0.00 0.00 0.00 0.00 0.00 0.00 0.00 0.00 0.00 0.00 0.00 0.00
0.03 0.02 0.02 0.00 0.01 0.02 0.00 0.00 0.00 0.00 0.00 0.00 0.00 0.00 0.00 0.00 0.00 0.00 0.00 0.00 0.00 0.00 0.00 0.00 0.00 0.00 0.00 0.00 0.00 0.00 0.00 0.00 0.00 0.00 0.00 0.00 0.00 0.00 0.00 0.00 0.00 0.00 0.00
0.06 0.06 0.05 0.03 0.05 0.05 0.00 0.00 0.00 0.00 0.00 0.00 0.00 0.00 0.00 0.00 0.00 0.00 0.00 0.00 0.00 0.00 0.00 0.00 0.00 0.00 0.00 0.00 0.00 0.00 0.00 0.00 0.00 0.00 0.00 0.00 0.00 0.00 0.00 0.00 0.00 0.00 0.00
0.04 0.07 0.09 0.08 0.10 0.05 0.02 0.00 0.01 0.03 0.01 0.00 0.00 0.00 0.00 0.00 0.00 0.00 0.00 0.00 0.00 0.00 0.00 0.00 0.00 0.00 0.00 0.00 0.00 0.00 0.00 0.00 0.00 0.00 0.00 0.00 0.00 0.00 0.00 0.00 0.00 0.00 0.00
0.05 0.08 0.09 0.05 0.05 0.05 0.05 0.03 0.04 0.03 0.05 0.05 0.03 0.02 0.02 0.01 0.00 0.00 0.00 0.00 0.00 0.00 0.00 0.00 0.00 0.00 0.00 0.00 0.00 0.00 0.00 0.00 0.00 0.00 0.00 0.00 0.00 0.00 0.00 0.00 0.00 0.00 0.00
0.05 0.03 0.11 0.09 0.08 0.05 0.05 0.06 0.06 0.05 0.10 0.06 0.04 0.11 0.13 0.11 0.11 0.02 0.00 0.00 0.00 0.00 0.00 0.00 0.00 0.00 0.00 0.00 0.00 0.00 0.00 0.00 0.00 0.00 0.00 0.00 0.00 0.00 0.00 0.00 0.00 0.00 0.00
0.04 0.02 0.02 0.04 0.05 0.05 0.08 0.07 0.06 0.04 0.16 0.22 0.04 0.02 0.02 0.10 0.14 0.13 0.02 0.00 0.00 0.00 0.00 0.00 0.00 0.00 0.00 0.00 0.00 0.00 0.00 0.00 0.00 0.00 0.00 0.00 0.00 0.01 0.01 0.01 0.01 0.00 0.00
0.06 0.03 0.03 0.08 0.05 0.03 0.13 0.18 0.11 0.08 0.14 0.23 0.11 0.10 0.04 0.05 0.05 0.05 0.06 0.07 0.02 0.01 0.01 0.02 0.02 0.00 0.00 0.00 0.00 0.00 0.00 0.00 0.00 0.00 0.00 0.00 0.00 0.00 0.01 0.02 0.03 0.03 0.02
0.10 0.05 0.04 0.04 0.09 0.10 0.17 0.22 0.26 0.25 0.30 0.30 0.23 0.22 0.19 0.16 0.12 0.16 0.13 0.08 0.10 0.05 0.02 0.03 0.04 0.03 0.01 0.00 0.00 0.00 0.00 0.00 0.00 0.00 0.00 0.00 0.00 0.00 0.01 0.02 0.05 0.07 0.09
0.03 0.05 0.13 0.10 0.09 0.21 0.25 0.31 0.32 0.34 0.40 0.48 0.62 0.54 0.46 0.39 0.25 0.23 0.25 0.22 0.22 0.17 0.11 0.08 0.06 0.05 0.02 0.00 0.00 0.00 0.00 0.00 0.00 0.00 0.00 0.00 0.00 0.00 0.00 0.01 0.02 0.03 0.04
0.06 0.09 0.18 0.34 0.28 0.26 0.27 0.33 0.46 0.64 0.73 0.67 0.63 0.54 0.40 0.33 0.34 0.33 0.29 0.24 0.17 0.08 0.05 0.03 0.01 0.00 0.00 0.00 0.00 0.00 0.00 0.00 0.00 0.00 0.00 0.00 0.00 0.00 0.01 0.02 0.01 0.01 0.01
0.28 0.24 0.31 0.41 0.42 0.38 0.51 0.57 0.53 0.38 0.28 0.22 0.23 0.29 0.31 0.28 0.24 0.16 0.13 0.10 0.10 0.06 0.03 0.01 0.00 0.00 0.00 0.00 0.00 0.00 0.00 0.00 0.00 0.00 0.00 0.00 0.00 0.00 0.00 0.01 0.01 0.01 0.01
0.38 0.46 0.46 0.47 0.41 0.30 0.31 0.36 0.31 0.21 0.20 0.23 0.23 0.24 0.23 0.17 0.15 0.12 0.10 0.07 0.06 0.04 0.03 0.01 0.01 0.00 0.00 0.00 0.00 0.00 0.00 0.00 0.00 0.00 0.00 0.00 0.00 0.00 0.00 0.00 0.01 0.01 0.01
0.58 0.64 0.45 0.34 0.28 0.41 0.44 0.29 0.25 0.26 0.27 0.27 0.25 0.23 0.20 0.17 0.15 0.12 0.09 0.07 0.06 0.06 0.09 0.06 0.04 0.03 0.00 0.00 0.00 0.00 0.00 0.00 0.00 0.00 0.00 0.00 0.00 0.00 0.00 0.00 0.00 0.00 0.01
0.67 0.53 0.33 0.22 0.21 0.22 0.33 0.46 0.46 0.41 0.37 0.36 0.39 0.34 0.28 0.27 0.30 0.30 0.31 0.29 0.26 0.22 0.25 0.20 0.12 0.08 0.01 0.00 0.00 0.00 0.00 0.00 0.00 0.00 0.00 0.00 0.00 0.00 0.00 0.00 0.00 0.00 0.00
0.31 0.26 0.27 0.19 0.16 0.15 0.20 0.23 0.24 0.28 0.31 0.36 0.42 0.41 0.34 0.27 0.22 0.20 0.21 0.22 0.19 0.20 0.19 0.16 0.09 0.06 0.03 0.00 0.00 0.00 0.00 0.00 0.00 0.00 0.00 0.00 0.00 0.00 0.00 0.00 0.00 0.00 0.01
0.13 0.16 0.12 0.11 0.10 0.11 0.11 0.11 0.15 0.17 0.20 0.21 0.22 0.26 0.35 0.42 0.40 0.34 0.26 0.19 0.14 0.11 0.10 0.11 0.09 0.03 0.01 0.00 0.00 0.00 0.00 0.00 0.01 0.01 0.01 0.00 0.00 0.00 0.00 0.00 0.00 0.01 0.01
0.11 0.15 0.11 0.08 0.07 0.08 0.10 0.12 0.12 0.12 0.13 0.16 0.17 0.19 0.20 0.23 0.21 0.19 0.17 0.12 0.07 0.06 0.07 0.07 0.07 0.02 0.02 0.00 0.00 0.01 0.01 0.00 0.00 0.00 0.00 0.00 0.01 0.00 0.01 0.01 0.02 0.02 0.02
0.19 0.19 0.19 0.17 0.13 0.14 0.25 0.18 0.10 0.05 0.04 0.05 0.05 0.05 0.08 0.12 0.09 0.12 0.12 0.12 0.09 0.09 0.08 0.04 0.03 0.03 0.02 0.00 0.01 0.01 0.02 0.02 0.02 0.00 0.01 0.01 0.01 0.00 0.00 0.01 0.01 0.01 0.02
0.20 0.21 0.19 0.19 0.15 0.12 0.21 0.19 0.15 0.04 0.04 0.04 0.03 0.04 0.06 0.10 0.14 0.05 0.10 0.08 0.08 0.09 0.07 0.04 0.04 0.04 0.03 0.01 0.02 0.03 0.04 0.04 0.02 0.01 0.02 0.02 0.01 0.01 0.01 0.01 0.01 0.00 0.00
0.13 0.15 0.14 0.13 0.13 0.14 0.18 0.12 0.13 0.04 0.05 0.06 0.07 0.06 0.08 0.10 0.16 0.14 0.08 0.08 0.09 0.13 0.13 0.07 0.08 0.10 0.08 0.03 0.02 0.04 0.04 0.03 0.02 0.01 0.01 0.03 0.01 0.01 0.01 0.01 0.01 0.02 0.04
0.09 0.07 0.08 0.08 0.09 0.11 0.17 0.13 0.11 0.03 0.05 0.08 0.09 0.11 0.15 0.14 0.32 0.26 0.16 0.19 0.20 0.20 0.20 0.16 0.12 0.07 0.04 0.02 0.01 0.03 0.02 0.04 0.03 0.00 0.01 0.02 0.01 0.01 0.00 0.00 0.00 0.01 0.02
0.07 0.06 0.07 0.07 0.12 0.09 0.17 0.12 0.11 0.04 0.08 0.11 0.12 0.16 0.25 0.15 0.23 0.13 0.07 0.06 0.08 0.10 0.11 0.12 0.10 0.05 0.02 0.01 0.01 0.01 0.01 0.06 0.06 0.04 0.00 0.02 0.01 0.02 0.06 0.01 0.01 0.02 0.04

GFSMA_prec_precacc24_081.txt.gz
Total_Precipitation_Accumulation
0.06 0.09 0.10 0.00 0.00 0.00 0.00 0.00 0.00 0.00 0.00 0.00 0.00 0.00 0.00 0.00 0.00 0.00 0.00 0.00 0.00 0.00 0.00 0.00 0.00 0.00 0.00 0.00 0.00 0.00 0.00 0.00 0.00 0.00 0.00 0.00 0.00 0.00 0.00 0.00 0.00 0.00 0.00
0.06 0.04 0.04 0.01 0.00 0.00 0.00 0.00 0.00 0.00 0.00 0.00 0.00 0.00 0.00 0.00 0.00 0.00 0.00 0.00 0.00 0.00 0.00 0.00 0.00 0.00 0.00 0.00 0.00 0.00 0.00 0.00 0.00 0.00 0.00 0.00 0.00 0.00 0.00 0.00 0.00 0.00 0.00
0.09 0.02 0.02 0.01 0.00 0.00 0.00 0.00 0.00 0.00 0.00 0.00 0.00 0.00 0.00 0.00 0.00 0.00 0.00 0.00 0.00 0.00 0.00 0.00 0.00 0.00 0.00 0.00 0.00 0.00 0.00 0.00 0.00 0.00 0.00 0.00 0.00 0.00 0.00 0.00 0.00 0.00 0.00
0.06 0.04 0.05 0.03 0.00 0.00 0.00 0.00 0.00 0.00 0.00 0.00 0.00 0.00 0.00 0.00 0.00 0.00 0.00 0.00 0.00 0.00 0.00 0.00 0.00 0.00 0.00 0.00 0.00 0.00 0.00 0.00 0.00 0.00 0.00 0.00 0.00 0.00 0.00 0.00 0.00 0.00 0.00
0.03 0.03 0.03 0.03 0.03 0.01 0.00 0.00 0.00 0.00 0.00 0.00 0.00 0.00 0.00 0.00 0.00 0.00 0.00 0.00 0.00 0.00 0.00 0.00 0.00 0.00 0.00 0.00 0.00 0.00 0.00 0.00 0.00 0.00 0.00 0.00 0.00 0.00 0.00 0.00 0.00 0.00 0.00
0.00 0.01 0.03 0.11 0.11 0.09 0.01 0.00 0.00 0.00 0.00 0.00 0.00 0.00 0.00 0.00 0.00 0.00 0.00 0.00 0.00 0.00 0.00 0.00 0.00 0.00 0.00 0.00 0.00 0.00 0.00 0.00 0.00 0.00 0.00 0.00 0.00 0.00 0.00 0.00 0.00 0.00 0.00
0.00 0.00 0.00 0.08 0.06 0.07 0.03 0.00 0.01 0.03 0.01 0.00 0.00 0.00 0.00 0.00 0.00 0.00 0.00 0.00 0.00 0.00 0.00 0.00 0.00 0.00 0.00 0.00 0.00 0.00 0.00 0.00 0.00 0.00 0.00 0.00 0.00 0.00 0.00 0.00 0.00 0.00 0.00
0.01 0.03 0.02 0.01 0.03 0.06 0.05 0.03 0.04 0.03 0.05 0.05 0.03 0.02 0.02 0.01 0.00 0.00 0.00 0.00 0.00 0.00 0.00 0.00 0.00 0.00 0.00 0.00 0.00 0.00 0.00 0.00 0.00 0.01 0.00 0.00 0.00 0.00 0.00 0.00 0.00 0.00 0.00
0.02 0.03 0.07 0.08 0.08 0.06 0.05 0.06 0.06 0.05 0.10 0.06 0.04 0.14 0.17 0.14 0.14 0.03 0.00 0.00 0.00 0.00 0.00 0.00 0.00 0.00 0.00 0.00 0.00 0.00 0.00 0.00 0.00 0.00 0.01 0.01 0.00 0.00 0.00 0.00 0.00 0.00 0.00
0.01 0.01 0.01 0.03 0.05 0.05 0.08 0.07 0.06 0.04 0.20 0.25 0.05 0.02 0.05 0.15 0.20 0.21 0.08 0.01 0.00 0.00 0.00 0.00 0.00 0.00 0.00 0.00 0.00 0.00 0.00 0.00 0.00 0.00 0.00 0.01 0.02 0.02 0.01 0.01 0.01 0.00 0.00
0.04 0.02 0.02 0.06 0.04 0.02 0.12 0.18 0.11 0.12 0.19 0.24 0.11 0.13 0.08 0.13 0.13 0.10 0.12 0.10 0.04 0.01 0.01 0.02 0.02 0.00 0.00 0.00 0.00 0.00 0.00 0.00 0.00 0.00 0.00 0.00 0.01 0.02 0.02 0.03 0.04 0.05 0.06
0.10 0.02 0.02 0.03 0.06 0.06 0.12 0.19 0.26 0.27 0.36 0.35 0.22 0.22 0.19 0.17 0.14 0.17 0.15 0.12 0.13 0.05 0.02 0.03 0.04 0.03 0.01 0.00 0.00 0.00 0.00 0.00 0.00 0.00 0.00 0.00 0.00 0.01 0.01 0.02 0.05 0.07 0.09
0.03 0.01 0.02 0.04 0.05 0.15 0.21 0.30 0.33 0.37 0.42 0.50 0.60 0.47 0.34 0.27 0.21 0.27 0.28 0.23 0.27 0.23 0.13 0.08 0.06 0.05 0.02 0.00 0.00 0.00 0.00 0.00 0.00 0.00 0.00 0.00 0.00 0.00 0.00 0.01 0.02 0.03 0.04
0.00 0.00 0.07 0.15 0.19 0.22 0.24 0.30 0.43 0.59 0.67 0.60 0.53 0.46 0.36 0.29 0.29 0.35 0.31 0.25 0.18 0.09 0.06 0.03 0.01 0.00 0.00 0.00 0.00 0.00 0.00 0.00 0.00 0.00 0.00 0.00 0.00 0.00 0.01 0.02 0.01 0.01 0.01
0.02 0.00 0.03 0.13 0.22 0.25 0.44 0.54 0.50 0.35 0.26 0.17 0.17 0.20 0.19 0.14 0.17 0.14 0.16 0.14 0.13 0.07 0.03 0.01 0.00 0.00 0.00 0.00 0.00 0.00 0.00 0.00 0.00 0.00 0.00 0.00 0.00 0.00 0.00 0.01 0.01 0.01 0.01
0.13 0.09 0.09 0.20 0.29 0.27 0.30 0.35 0.30 0.18 0.13 0.10 0.09 0.10 0.10 0.11 0.13 0.14 0.14 0.12 0.13 0.08 0.04 0.01 0.01 0.00 0.00 0.01 0.00 0.00 0.00 0.00 0.00 0.00 0.00 0.00 0.00 0.00 0.00 0.00 0.01 0.01 0.01
0.29 0.30 0.31 0.30 0.26 0.39 0.41 0.24 0.16 0.12 0.11 0.12 0.13 0.14 0.15 0.15 0.16 0.16 0.16 0.16 0.12 0.12 0.11 0.07 0.04 0.04 0.03 0.03 0.01 0.00 0.00 0.00 0.00 0.00 0.00 0.00 0.00 0.00 0.00 0.00 0.00 0.00 0.01
0.61 0.48 0.32 0.21 0.19 0.16 0.25 0.35 0.34 0.31 0.29 0.29 0.31 0.28 0.25 0.26 0.31 0.34 0.36 0.32 0.28 0.25 0.30 0.26 0.15 0.10 0.07 0.05 0.04 0.02 0.02 0.01 0.00 0.01 0.02 0.03 0.02 0.01 0.00 0.00 0.00 0.00 0.00
0.28 0.24 0.26 0.18 0.15 0.13 0.16 0.20 0.20 0.23 0.27 0.31 0.38 0.40 0.34 0.28 0.24 0.21 0.23 0.25 0.22 0.23 0.25 0.24 0.16 0.09 0.08 0.06 0.06 0.06 0.05 0.03 0.02 0.02 0.03 0.02 0.03 0.02 0.00 0.00 0.00 0.00 0.01
0.09 0.13 0.10 0.10 0.09 0.09 0.09 0.10 0.13 0.16 0.19 0.20 0.22 0.26 0.36 0.43 0.42 0.37 0.32 0.26 0.23 0.22 0.21 0.19 0.16 0.11 0.10 0.07 0.07 0.07 0.05 0.04 0.03 0.04 0.04 0.04 0.06 0.04 0.02 0.01 0.00 0.01 0.01
0.09 0.13 0.10 0.07 0.07 0.07 0.10 0.11 0.12 0.12 0.13 0.16 0.17 0.19 0.20 0.23 0.24 0.23 0.24 0.20 0.18 0.19 0.20 0.20 0.17 0.11 0.10 0.09 0.07 0.05 0.06 0.06 0.08 0.10 0.08 0.05 0.03 0.01 0.01 0.01 0.02 0.02 0.02
0.18 0.19 0.19 0.17 0.13 0.14 0.25 0.18 0.10 0.05 0.04 0.05 0.05 0.05 0.08 0.12 0.10 0.15 0.18 0.20 0.18 0.17 0.18 0.20 0.22 0.22 0.17 0.17 0.18 0.21 0.24 0.27 0.24 0.17 0.16 0.09 0.04 0.04 0.03 0.01 0.01 0.01 0.02
0.20 0.21 0.19 0.19 0.15 0.12 0.20 0.18 0.14 0.04 0.04 0.04 0.03 0.04 0.06 0.10 0.15 0.09 0.19 0.24 0.30 0.43 0.46 0.41 0.44 0.42 0.36 0.33 0.29 0.31 0.32 0.32 0.29 0.25 0.21 0.18 0.11 0.07 0.02 0.01 0.01 0.00 0.00
0.13 0.15 0.14 0.13 0.13 0.14 0.17 0.13 0.14 0.05 0.05 0.07 0.07 0.07 0.08 0.10 0.19 0.22 0.23 0.37 0.49 0.59 0.62 0.60 0.61 0.65 0.60 0.47 0.40 0.37 0.33 0.28 0.22 0.17 0.12 0.10 0.04 0.03 0.02 0.01 0.01 0.02 0.04
0.09 0.07 0.08 0.08 0.09 0.11 0.17 0.13 0.12 0.04 0.05 0.08 0.09 0.12 0.17 0.15 0.41 0.33 0.20 0.28 0.38 0.43 0.52 0.48 0.44 0.44 0.42 0.35 0.26 0.21 0.20 0.18 0.16 0.10 0.06 0.06 0.03 0.03 0.01 0.01 0.00 0.01 0.02
0.07 0.06 0.07 0.07 0.13 0.10 0.18 0.13 0.12 0.05 0.12 0.15 0.16 0.22 0.39 0.23 0.38 0.22 0.12 0.08 0.16 0.21 0.22 0.26 0.27 0.25 0.22 0.18 0.16 0.12 0.11 0.13 0.14 0.11 0.05 0.05 0.03 0.03 0.06 0.01 0.01 0.02 0.04

GFSMA_prec_precacc24_084.txt.gz
Total_Precipitation_Accumulation
0.08 0.09 0.10 0.00 0.00 0.00 0.00 0.00 0.00 0.00 0.00 0.00 0.00 0.00 0.00 0.00 0.00 0.00 0.00 0.00 0.00 0.00 0.00 0.00 0.00 0.00 0.00 0.00 0.00 0.00 0.00 0.00 0.00 0.00 0.00 0.00 0.00 0.00 0.00 0.00 0.00 0.00 0.00
0.06 0.04 0.04 0.01 0.00 0.00 0.00 0.00 0.00 0.00 0.00 0.00 0.00 0.00 0.00 0.00 0.00 0.00 0.00 0.00 0.00 0.00 0.00 0.00 0.00 0.00 0.00 0.00 0.00 0.00 0.00 0.00 0.00 0.00 0.00 0.00 0.00 0.00 0.00 0.00 0.00 0.00 0.00
0.09 0.02 0.02 0.01 0.00 0.00 0.00 0.00 0.00 0.00 0.00 0.00 0.00 0.00 0.00 0.00 0.00 0.00 0.00 0.00 0.00 0.00 0.00 0.00 0.00 0.00 0.00 0.00 0.00 0.00 0.00 0.00 0.00 0.00 0.00 0.00 0.00 0.00 0.00 0.00 0.00 0.00 0.00
0.06 0.04 0.02 0.00 0.00 0.00 0.00 0.00 0.00 0.00 0.00 0.00 0.00 0.00 0.00 0.00 0.00 0.00 0.00 0.00 0.00 0.00 0.00 0.00 0.00 0.00 0.00 0.00 0.00 0.00 0.00 0.00 0.00 0.00 0.00 0.00 0.00 0.00 0.00 0.00 0.00 0.00 0.00
0.04 0.03 0.03 0.02 0.03 0.01 0.00 0.00 0.00 0.00 0.00 0.00 0.00 0.00 0.00 0.00 0.00 0.00 0.00 0.00 0.00 0.00 0.00 0.00 0.00 0.00 0.00 0.00 0.00 0.00 0.00 0.00 0.00 0.00 0.00 0.00 0.00 0.00 0.00 0.00 0.00 0.00 0.00
0.01 0.02 0.03 0.11 0.10 0.05 0.01 0.00 0.00 0.00 0.00 0.00 0.00 0.00 0.00 0.00 0.00 0.00 0.00 0.00 0.00 0.00 0.00 0.00 0.00 0.00 0.00 0.00 0.00 0.00 0.00 0.00 0.00 0.00 0.00 0.00 0.00 0.00 0.00 0.00 0.00 0.00 0.00
0.02 0.01 0.01 0.08 0.05 0.04 0.02 0.00 0.01 0.03 0.01 0.00 0.00 0.00 0.00 0.00 0.00 0.00 0.00 0.00 0.00 0.00 0.00 0.00 0.00 0.00 0.00 0.00 0.00 0.00 0.00 0.00 0.00 0.00 0.00 0.00 0.00 0.00 0.00 0.00 0.00 0.00 0.00
0.03 0.05 0.02 0.01 0.03 0.05 0.05 0.03 0.04 0.03 0.05 0.05 0.03 0.02 0.02 0.01 0.00 0.00 0.00 0.00 0.00 0.00 0.00 0.00 0.00 0.00 0.00 0.00 0.00 0.00 0.00 0.00 0.00 0.01 0.00 0.00 0.00 0.00 0.00 0.00 0.00 0.00 0.00
0.02 0.04 0.07 0.08 0.09 0.07 0.06 0.06 0.06 0.05 0.10 0.06 0.04 0.14 0.17 0.14 0.14 0.03 0.00 0.00 0.00 0.00 0.00 0.00 0.00 0.00 0.00 0.00 0.00 0.00 0.00 0.00 0.00 0.00 0.02 0.01 0.00 0.00 0.00 0.00 0.00 0.00 0.00
0.02 0.01 0.02 0.03 0.06 0.08 0.08 0.07 0.06 0.04 0.20 0.25 0.05 0.02 0.05 0.15 0.20 0.21 0.08 0.01 0.00 0.00 0.00 0.00 0.00 0.00 0.00 0.00 0.00 0.00 0.00 0.00 0.00 0.00 0.00 0.03 0.04 0.02 0.01 0.01 0.01 0.00 0.00
0.04 0.02 0.02 0.03 0.04 0.04 0.09 0.14 0.09 0.10 0.18 0.23 0.10 0.12 0.07 0.13 0.13 0.10 0.11 0.08 0.03 0.01 0.01 0.02 0.02 0.00 0.00 0.00 0.00 0.00 0.00 0.00 0.00 0.00 0.00 0.01 0.04 0.07 0.05 0.04 0.04 0.05 0.06
0.10 0.02 0.01 0.02 0.05 0.06 0.09 0.12 0.22 0.25 0.35 0.34 0.19 0.16 0.12 0.15 0.13 0.14 0.09 0.11 0.13 0.05 0.02 0.03 0.04 0.03 0.01 0.00 0.00 0.00 0.00 0.00 0.00 0.00 0.00 0.00 0.00 0.02 0.03 0.04 0.06 0.08 0.10
0.03 0.01 0.00 0.00 0.01 0.05 0.09 0.19 0.28 0.33 0.40 0.38 0.41 0.36 0.32 0.26 0.18 0.25 0.26 0.21 0.27 0.23 0.13 0.08 0.06 0.05 0.02 0.00 0.00 0.00 0.00 0.00 0.00 0.00 0.00 0.00 0.00 0.00 0.01 0.01 0.02 0.04 0.05
0.00 0.00 0.00 0.00 0.01 0.05 0.09 0.20 0.38 0.56 0.66 0.56 0.49 0.43 0.31 0.22 0.20 0.28 0.27 0.24 0.17 0.09 0.06 0.03 0.01 0.00 0.00 0.00 0.00 0.00 0.00 0.00 0.00 0.00 0.00 0.00 0.00 0.00 0.01 0.02 0.01 0.02 0.01
0.02 0.00 0.00 0.00 0.02 0.04 0.18 0.41 0.45 0.33 0.25 0.17 0.16 0.17 0.15 0.11 0.15 0.12 0.15 0.14 0.13 0.06 0.03 0.01 0.00 0.00 0.00 0.00 0.00 0.00 0.00 0.00 0.00 0.00 0.00 0.00 0.00 0.00 0.00 0.01 0.01 0.02 0.01
0.12 0.09 0.05 0.05 0.06 0.09 0.19 0.29 0.27 0.18 0.12 0.09 0.08 0.10 0.11 0.10 0.11 0.12 0.12 0.11 0.13 0.08 0.05 0.01 0.01 0.00 0.00 0.01 0.00 0.00 0.00 0.00 0.00 0.00 0.00 0.00 0.00 0.00 0.00 0.01 0.02 0.01 0.01
0.20 0.18 0.12 0.17 0.21 0.32 0.36 0.23 0.15 0.11 0.10 0.11 0.10 0.11 0.11 0.12 0.14 0.15 0.15 0.15 0.12 0.12 0.13 0.07 0.04 0.04 0.03 0.03 0.01 0.00 0.00 0.00 0.00 0.02 0.03 0.04 0.04 0.03 0.03 0.03 0.04 0.03 0.01
0.53 0.43 0.22 0.18 0.16 0.15 0.24 0.34 0.33 0.30 0.28 0.27 0.28 0.27 0.24 0.26 0.31 0.34 0.36 0.32 0.28 0.25 0.30 0.26 0.16 0.12 0.09 0.07 0.05 0.03 0.03 0.02 0.02 0.05 0.08 0.09 0.09 0.08 0.07 0.07 0.06 0.03 0.01
0.22 0.20 0.22 0.16 0.15 0.13 0.16 0.20 0.19 0.21 0.24 0.29 0.36 0.39 0.33 0.28 0.23 0.21 0.23 0.25 0.22 0.23 0.25 0.24 0.16 0.10 0.08 0.06 0.06 0.07 0.06 0.04 0.02 0.05 0.06 0.08 0.09 0.09 0.10 0.09 0.07 0.05 0.04
0.06 0.10 0.08 0.08 0.08 0.08 0.09 0.09 0.12 0.16 0.18 0.20 0.22 0.26 0.36 0.43 0.42 0.37 0.32 0.26 0.23 0.22 0.21 0.20 0.17 0.13 0.12 0.08 0.08 0.09 0.07 0.07 0.07 0.07 0.09 0.10 0.12 0.12 0.11 0.08 0.06 0.04 0.03
0.08 0.12 0.08 0.06 0.07 0.07 0.09 0.10 0.11 0.11 0.13 0.16 0.17 0.19 0.20 0.23 0.24 0.23 0.24 0.19 0.18 0.19 0.21 0.21 0.20 0.14 0.14 0.10 0.08 0.07 0.10 0.11 0.15 0.19 0.14 0.11 0.09 0.08 0.08 0.10 0.09 0.08 0.06
0.16 0.17 0.17 0.15 0.11 0.12 0.22 0.17 0.10 0.05 0.04 0.05 0.05 0.05 0.08 0.12 0.10 0.15 0.18 0.20 0.18 0.17 0.18 0.20 0.23 0.23 0.17 0.17 0.18 0.23 0.28 0.33 0.34 0.28 0.24 0.19 0.14 0.14 0.12 0.12 0.10 0.10 0.09
0.21 0.21 0.19 0.18 0.14 0.12 0.20 0.18 0.14 0.04 0.04 0.04 0.03 0.04 0.06 0.10 0.15 0.09 0.19 0.24 0.30 0.43 0.47 0.42 0.45 0.43 0.36 0.34 0.31 0.33 0.36 0.37 0.37 0.31 0.23 0.21 0.15 0.11 0.08 0.09 0.09 0.05 0.02
0.17 0.17 0.16 0.14 0.13 0.14 0.17 0.13 0.14 0.05 0.05 0.07 0.07 0.07 0.08 0.10 0.19 0.22 0.23 0.37 0.49 0.60 0.63 0.61 0.63 0.69 0.67 0.60 0.53 0.47 0.41 0.34 0.29 0.23 0.16 0.15 0.12 0.11 0.09 0.06 0.05 0.04 0.05
0.13 0.10 0.11 0.10 0.09 0.11 0.17 0.13 0.12 0.04 0.06 0.09 0.09 0.12 0.17 0.15 0.41 0.33 0.20 0.28 0.38 0.44 0.55 0.53 0.48 0.52 0.56 0.47 0.37 0.28 0.27 0.22 0.21 0.18 0.13 0.11 0.08 0.08 0.06 0.04 0.02 0.02 0.03
0.09 0.10 0.11 0.13 0.17 0.12 0.20 0.15 0.13 0.06 0.13 0.16 0.17 0.23 0.41 0.25 0.40 0.25 0.14 0.09 0.17 0.25 0.26 0.32 0.33 0.32 0.29 0.26 0.25 0.20 0.18 0.20 0.20 0.18 0.09 0.06 0.03 0.03 0.06 0.01 0.01 0.03 0.04

GFSMA_prec_precacc24_087.txt.gz
Total_Precipitation_Accumulation
0.19 0.16 0.12 0.01 0.00 0.00 0.00 0.00 0.00 0.00 0.00 0.00 0.00 0.00 0.00 0.00 0.00 0.00 0.00 0.00 0.00 0.00 0.00 0.00 0.00 0.00 0.00 0.00 0.00 0.00 0.00 0.00 0.00 0.00 0.00 0.00 0.00 0.00 0.00 0.00 0.00 0.00 0.00
0.17 0.05 0.05 0.01 0.00 0.00 0.00 0.00 0.00 0.00 0.00 0.00 0.00 0.00 0.00 0.00 0.00 0.00 0.00 0.00 0.00 0.00 0.00 0.00 0.00 0.00 0.00 0.00 0.00 0.00 0.00 0.00 0.00 0.00 0.00 0.00 0.00 0.00 0.00 0.00 0.00 0.00 0.00
0.19 0.03 0.02 0.01 0.00 0.00 0.00 0.00 0.00 0.00 0.00 0.00 0.00 0.00 0.00 0.00 0.00 0.00 0.00 0.00 0.00 0.00 0.00 0.00 0.00 0.00 0.00 0.00 0.00 0.00 0.00 0.00 0.00 0.00 0.00 0.00 0.00 0.00 0.00 0.00 0.00 0.00 0.00
0.14 0.06 0.02 0.00 0.00 0.00 0.00 0.00 0.00 0.00 0.00 0.00 0.00 0.00 0.00 0.00 0.00 0.00 0.00 0.00 0.00 0.00 0.00 0.00 0.00 0.00 0.00 0.00 0.00 0.00 0.00 0.00 0.00 0.00 0.00 0.00 0.00 0.00 0.00 0.00 0.00 0.00 0.00
0.13 0.05 0.04 0.02 0.03 0.01 0.00 0.00 0.00 0.00 0.00 0.00 0.00 0.00 0.00 0.00 0.00 0.00 0.00 0.00 0.00 0.00 0.00 0.00 0.00 0.00 0.00 0.00 0.00 0.00 0.00 0.00 0.00 0.00 0.00 0.00 0.00 0.00 0.00 0.00 0.00 0.00 0.00
0.12 0.04 0.05 0.10 0.10 0.05 0.01 0.00 0.00 0.00 0.00 0.00 0.00 0.00 0.00 0.00 0.00 0.00 0.00 0.00 0.00 0.00 0.00 0.00 0.00 0.00 0.00 0.00 0.00 0.00 0.00 0.00 0.00 0.00 0.00 0.00 0.00 0.00 0.00 0.00 0.00 0.00 0.00
0.08 0.04 0.04 0.09 0.05 0.04 0.02 0.00 0.01 0.03 0.01 0.00 0.00 0.00 0.00 0.00 0.00 0.00 0.00 0.00 0.00 0.00 0.00 0.00 0.00 0.00 0.00 0.00 0.00 0.00 0.00 0.00 0.00 0.00 0.00 0.00 0.00 0.00 0.00 0.00 0.00 0.00 0.00
0.09 0.09 0.06 0.02 0.03 0.04 0.04 0.03 0.04 0.03 0.05 0.05 0.03 0.02 0.02 0.01 0.00 0.00 0.00 0.00 0.00 0.00 0.00 0.00 0.00 0.00 0.00 0.00 0.00 0.00 0.00 0.00 0.00 0.01 0.00 0.00 0.00 0.00 0.00 0.00 0.00 0.00 0.00
0.08 0.10 0.16 0.10 0.09 0.07 0.05 0.05 0.06 0.04 0.09 0.06 0.04 0.14 0.17 0.14 0.14 0.03 0.00 0.00 0.00 0.00 0.00 0.00 0.00 0.00 0.00 0.00 0.00 0.00 0.00 0.00 0.00 0.00 0.02 0.01 0.00 0.00 0.00 0.00 0.00 0.00 0.00
0.05 0.04 0.08 0.07 0.07 0.08 0.08 0.07 0.04 0.02 0.17 0.23 0.05 0.02 0.05 0.15 0.20 0.21 0.08 0.01 0.00 0.00 0.00 0.00 0.00 0.00 0.00 0.00 0.00 0.00 0.00 0.00 0.00 0.00 0.01 0.05 0.05 0.02 0.01 0.01 0.01 0.00 0.00
0.05 0.04 0.04 0.05 0.04 0.05 0.10 0.14 0.08 0.07 0.14 0.21 0.08 0.11 0.05 0.10 0.10 0.10 0.10 0.08 0.02 0.00 0.01 0.02 0.02 0.00 0.00 0.00 0.00 0.00 0.00 0.00 0.00 0.00 0.00 0.01 0.05 0.10 0.08 0.05 0.05 0.06 0.06
0.11 0.03 0.02 0.03 0.05 0.07 0.10 0.12 0.15 0.19 0.31 0.30 0.16 0.14 0.09 0.08 0.08 0.11 0.08 0.10 0.12 0.05 0.02 0.02 0.03 0.03 0.01 0.00 0.00 0.00 0.00 0.00 0.00 0.00 0.00 0.00 0.00 0.03 0.05 0.07 0.08 0.09 0.11
0.03 0.01 0.01 0.01 0.01 0.02 0.04 0.10 0.16 0.25 0.29 0.34 0.38 0.34 0.29 0.22 0.16 0.22 0.23 0.19 0.25 0.23 0.12 0.08 0.06 0.05 0.02 0.00 0.00 0.00 0.00 0.00 0.00 0.00 0.00 0.00 0.00 0.00 0.01 0.01 0.03 0.05 0.08
0.00 0.00 0.00 0.00 0.00 0.01 0.03 0.05 0.11 0.16 0.48 0.51 0.47 0.40 0.27 0.17 0.16 0.25 0.26 0.24 0.17 0.09 0.05 0.03 0.01 0.00 0.00 0.00 0.00 0.00 0.00 0.00 0.00 0.00 0.00 0.00 0.00 0.00 0.01 0.02 0.01 0.02 0.02
0.00 0.00 0.00 0.00 0.00 0.00 0.02 0.04 0.12 0.18 0.22 0.17 0.14 0.15 0.13 0.10 0.14 0.12 0.16 0.14 0.13 0.05 0.02 0.01 0.00 0.00 0.00 0.00 0.00 0.00 0.00 0.00 0.00 0.00 0.00 0.00 0.00 0.00 0.00 0.01 0.01 0.02 0.02
0.00 0.01 0.02 0.02 0.01 0.01 0.01 0.05 0.12 0.14 0.12 0.09 0.08 0.09 0.11 0.10 0.12 0.11 0.11 0.10 0.12 0.08 0.05 0.01 0.01 0.00 0.00 0.01 0.00 0.00 0.00 0.00 0.00 0.00 0.00 0.00 0.00 0.00 0.01 0.02 0.04 0.06 0.08
0.01 0.03 0.06 0.09 0.09 0.11 0.20 0.16 0.11 0.10 0.10 0.10 0.10 0.10 0.10 0.12 0.14 0.15 0.16 0.16 0.12 0.13 0.14 0.08 0.04 0.04 0.03 0.03 0.01 0.00 0.00 0.00 0.00 0.02 0.03 0.04 0.05 0.05 0.05 0.06 0.08 0.09 0.09
0.01 0.04 0.09 0.11 0.11 0.10 0.20 0.31 0.31 0.29 0.28 0.26 0.27 0.26 0.23 0.25 0.30 0.33 0.35 0.32 0.28 0.25 0.30 0.26 0.16 0.12 0.09 0.07 0.05 0.03 0.03 0.02 0.02 0.05 0.09 0.09 0.10 0.09 0.09 0.08 0.09 0.08 0.07
0.03 0.09 0.12 0.09 0.05 0.08 0.12 0.18 0.19 0.21 0.24 0.28 0.36 0.38 0.32 0.27 0.23 0.20 0.23 0.25 0.22 0.23 0.25 0.24 0.16 0.10 0.08 0.06 0.06 0.07 0.06 0.04 0.02 0.05 0.06 0.09 0.10 0.12 0.14 0.14 0.13 0.12 0.08
0.01 0.06 0.06 0.05 0.04 0.04 0.07 0.09 0.12 0.16 0.18 0.20 0.22 0.26 0.36 0.43 0.42 0.37 0.32 0.26 0.23 0.22 0.21 0.20 0.17 0.13 0.12 0.08 0.08 0.09 0.07 0.07 0.07 0.07 0.10 0.11 0.14 0.15 0.14 0.12 0.10 0.08 0.05
0.02 0.05 0.04 0.03 0.03 0.03 0.07 0.10 0.11 0.11 0.12 0.16 0.17 0.19 0.20 0.23 0.23 0.23 0.24 0.19 0.18 0.19 0.21 0.21 0.20 0.14 0.14 0.10 0.08 0.07 0.10 0.11 0.15 0.19 0.15 0.12 0.10 0.11 0.14 0.18 0.15 0.12 0.09
0.11 0.14 0.14 0.12 0.07 0.09 0.19 0.16 0.09 0.05 0.04 0.05 0.05 0.05 0.08 0.12 0.10 0.15 0.18 0.20 0.18 0.17 0.18 0.20 0.23 0.23 0.17 0.17 0.18 0.23 0.29 0.35 0.37 0.31 0.27 0.22 0.16 0.16 0.18 0.22 0.23 0.19 0.16
0.21 0.19 0.18 0.17 0.13 0.12 0.21 0.19 0.15 0.04 0.04 0.04 0.03 0.04 0.06 0.10 0.15 0.09 0.19 0.24 0.30 0.43 0.47 0.42 0.45 0.43 0.36 0.34 0.31 0.34 0.36 0.38 0.40 0.36 0.32 0.30 0.21 0.16 0.13 0.16 0.22 0.15 0.10
0.17 0.18 0.16 0.15 0.15 0.15 0.21 0.22 0.24 0.08 0.05 0.07 0.07 0.07 0.08 0.10 0.19 0.22 0.23 0.37 0.49 0.60 0.63 0.61 0.63 0.69 0.67 0.61 0.56 0.52 0.47 0.43 0.41 0.34 0.25 0.20 0.17 0.16 0.16 0.14 0.18 0.14 0.09
0.11 0.08 0.10 0.15 0.13 0.13 0.23 0.21 0.24 0.08 0.08 0.12 0.12 0.13 0.17 0.15 0.41 0.33 0.20 0.28 0.38 0.44 0.55 0.54 0.49 0.54 0.58 0.51 0.42 0.33 0.35 0.34 0.35 0.31 0.22 0.16 0.15 0.16 0.17 0.15 0.13 0.10 0.05
0.07 0.09 0.12 0.15 0.23 0.15 0.27 0.22 0.18 0.09 0.17 0.19 0.20 0.24 0.43 0.26 0.40 0.25 0.14 0.09 0.17 0.25 0.27 0.34 0.37 0.37 0.35 0.35 0.39 0.32 0.31 0.37 0.37 0.35 0.23 0.17 0.15 0.13 0.13 0.07 0.04 0.04 0.04

GFSMA_prec_precacc24_090.txt.gz
Total_Precipitation_Accumulation
0.22 0.24 0.19 0.11 0.40 0.05 0.00 0.00 0.00 0.00 0.00 0.00 0.00 0.00 0.00 0.00 0.00 0.00 0.00 0.00 0.00 0.00 0.00 0.00 0.00 0.00 0.00 0.00 0.00 0.00 0.00 0.00 0.00 0.00 0.00 0.00 0.00 0.00 0.00 0.00 0.00 0.00 0.00
0.31 0.25 0.17 0.07 0.23 0.05 0.00 0.00 0.00 0.00 0.00 0.00 0.00 0.00 0.00 0.00 0.00 0.00 0.00 0.00 0.00 0.00 0.01 0.00 0.00 0.00 0.00 0.00 0.00 0.00 0.00 0.00 0.00 0.00 0.00 0.00 0.00 0.00 0.00 0.00 0.00 0.00 0.00
0.45 0.21 0.15 0.06 0.06 0.01 0.00 0.00 0.00 0.00 0.00 0.00 0.00 0.00 0.00 0.00 0.00 0.00 0.00 0.00 0.00 0.00 0.00 0.01 0.00 0.00 0.00 0.00 0.00 0.00 0.00 0.00 0.00 0.00 0.00 0.00 0.00 0.00 0.00 0.00 0.00 0.00 0.00
0.50 0.24 0.11 0.03 0.01 0.00 0.00 0.00 0.00 0.00 0.00 0.00 0.00 0.00 0.00 0.00 0.00 0.00 0.00 0.00 0.00 0.00 0.00 0.00 0.00 0.00 0.00 0.00 0.00 0.00 0.00 0.00 0.00 0.00 0.00 0.00 0.00 0.00 0.00 0.00 0.00 0.00 0.00
0.39 0.13 0.07 0.05 0.04 0.01 0.00 0.00 0.00 0.00 0.00 0.00 0.00 0.00 0.00 0.00 0.00 0.00 0.00 0.00 0.00 0.00 0.00 0.00 0.00 0.00 0.00 0.00 0.00 0.00 0.00 0.00 0.00 0.00 0.00 0.00 0.00 0.00 0.00 0.00 0.00 0.00 0.00
0.33 0.11 0.07 0.13 0.11 0.05 0.01 0.00 0.00 0.00 0.00 0.00 0.00 0.00 0.00 0.00 0.00 0.00 0.00 0.00 0.00 0.00 0.00 0.00 0.00 0.00 0.00 0.00 0.00 0.00 0.00 0.00 0.00 0.00 0.00 0.00 0.00 0.00 0.00 0.00 0.00 0.00 0.00
0.34 0.12 0.06 0.10 0.05 0.03 0.01 0.00 0.01 0.03 0.01 0.00 0.00 0.00 0.00 0.00 0.00 0.00 0.00 0.00 0.00 0.00 0.00 0.00 0.00 0.00 0.00 0.00 0.00 0.00 0.00 0.00 0.00 0.00 0.00 0.00 0.00 0.00 0.00 0.00 0.00 0.00 0.00
0.27 0.18 0.10 0.04 0.02 0.02 0.03 0.03 0.04 0.03 0.05 0.05 0.03 0.02 0.02 0.01 0.00 0.00 0.00 0.00 0.00 0.00 0.00 0.00 0.00 0.00 0.00 0.00 0.00 0.00 0.00 0.00 0.00 0.01 0.00 0.00 0.00 0.00 0.00 0.00 0.00 0.00 0.00
0.18 0.23 0.20 0.12 0.05 0.06 0.05 0.05 0.06 0.04 0.09 0.05 0.04 0.14 0.17 0.14 0.14 0.03 0.00 0.00 0.00 0.00 0.00 0.00 0.00 0.00 0.00 0.00 0.00 0.00 0.00 0.00 0.00 0.00 0.02 0.01 0.00 0.00 0.00 0.00 0.00 0.00 0.00
0.17 0.18 0.23 0.16 0.08 0.08 0.08 0.07 0.04 0.02 0.17 0.23 0.04 0.01 0.04 0.15 0.20 0.21 0.08 0.01 0.00 0.00 0.00 0.00 0.00 0.00 0.00 0.00 0.00 0.00 0.00 0.00 0.00 0.00 0.01 0.06 0.06 0.02 0.01 0.01 0.01 0.01 0.01
0.12 0.17 0.13 0.16 0.08 0.06 0.10 0.14 0.08 0.07 0.13 0.19 0.06 0.10 0.05 0.10 0.10 0.09 0.10 0.08 0.02 0.00 0.01 0.02 0.02 0.00 0.00 0.00 0.00 0.00 0.00 0.00 0.00 0.00 0.00 0.01 0.06 0.11 0.08 0.05 0.05 0.06 0.07
0.16 0.11 0.14 0.09 0.09 0.08 0.11 0.12 0.15 0.17 0.22 0.23 0.14 0.12 0.08 0.07 0.07 0.09 0.05 0.09 0.12 0.05 0.02 0.02 0.03 0.03 0.01 0.00 0.00 0.00 0.00 0.00 0.00 0.00 0.00 0.00 0.00 0.03 0.06 0.08 0.09 0.09 0.11
0.04 0.02 0.05 0.05 0.05 0.03 0.04 0.10 0.12 0.15 0.15 0.13 0.14 0.10 0.16 0.18 0.13 0.19 0.20 0.17 0.24 0.23 0.12 0.08 0.06 0.05 0.02 0.00 0.00 0.00 0.00 0.00 0.00 0.00 0.00 0.00 0.00 0.00 0.00 0.01 0.04 0.07 0.09
0.00 0.00 0.00 0.01 0.01 0.02 0.03 0.04 0.05 0.06 0.07 0.08 0.19 0.24 0.20 0.15 0.12 0.18 0.18 0.19 0.16 0.09 0.05 0.03 0.01 0.00 0.00 0.00 0.00 0.00 0.00 0.00 0.00 0.00 0.00 0.00 0.00 0.00 0.00 0.01 0.01 0.02 0.03
0.00 0.00 0.00 0.00 0.00 0.01 0.02 0.03 0.03 0.03 0.05 0.07 0.13 0.14 0.12 0.08 0.10 0.09 0.13 0.13 0.14 0.06 0.02 0.01 0.00 0.00 0.00 0.00 0.00 0.00 0.00 0.00 0.00 0.00 0.00 0.00 0.00 0.00 0.00 0.00 0.00 0.01 0.01
0.00 0.00 0.00 0.00 0.00 0.00 0.01 0.02 0.02 0.02 0.05 0.07 0.08 0.09 0.10 0.08 0.10 0.10 0.09 0.10 0.12 0.08 0.05 0.01 0.01 0.00 0.00 0.01 0.00 0.00 0.00 0.00 0.00 0.00 0.00 0.00 0.00 0.00 0.01 0.01 0.03 0.05 0.07
0.00 0.00 0.00 0.00 0.00 0.00 0.06 0.06 0.04 0.03 0.03 0.06 0.08 0.09 0.09 0.11 0.15 0.16 0.16 0.16 0.14 0.14 0.15 0.08 0.04 0.04 0.03 0.03 0.01 0.00 0.00 0.00 0.00 0.02 0.03 0.04 0.05 0.05 0.05 0.06 0.07 0.08 0.09
0.00 0.00 0.00 0.01 0.03 0.04 0.07 0.14 0.21 0.22 0.24 0.24 0.24 0.23 0.22 0.24 0.30 0.32 0.34 0.31 0.28 0.25 0.31 0.28 0.16 0.12 0.09 0.07 0.05 0.03 0.03 0.02 0.02 0.05 0.09 0.09 0.10 0.09 0.09 0.09 0.09 0.08 0.07
0.00 0.00 0.00 0.00 0.01 0.04 0.10 0.13 0.14 0.17 0.22 0.27 0.35 0.37 0.31 0.26 0.22 0.20 0.23 0.25 0.22 0.23 0.25 0.24 0.17 0.10 0.08 0.06 0.06 0.07 0.06 0.04 0.02 0.05 0.06 0.09 0.11 0.13 0.15 0.15 0.15 0.13 0.11
0.00 0.00 0.00 0.00 0.01 0.02 0.05 0.06 0.09 0.14 0.18 0.19 0.21 0.25 0.35 0.42 0.42 0.37 0.32 0.26 0.23 0.23 0.21 0.20 0.17 0.13 0.12 0.08 0.08 0.09 0.07 0.07 0.07 0.07 0.10 0.11 0.15 0.16 0.14 0.12 0.12 0.11 0.10
0.00 0.00 0.00 0.00 0.01 0.01 0.02 0.05 0.07 0.09 0.12 0.15 0.16 0.18 0.19 0.21 0.23 0.23 0.24 0.19 0.18 0.19 0.21 0.21 0.20 0.14 0.14 0.10 0.08 0.07 0.10 0.11 0.15 0.19 0.15 0.12 0.11 0.13 0.15 0.21 0.20 0.17 0.14
0.03 0.01 0.01 0.02 0.02 0.03 0.09 0.08 0.05 0.03 0.03 0.03 0.04 0.04 0.07 0.11 0.09 0.14 0.18 0.20 0.18 0.17 0.18 0.20 0.23 0.23 0.17 0.17 0.18 0.23 0.29 0.35 0.37 0.31 0.27 0.22 0.16 0.17 0.20 0.25 0.32 0.32 0.26
0.11 0.09 0.07 0.07 0.07 0.07 0.16 0.19 0.15 0.04 0.02 0.02 0.02 0.04 0.05 0.10 0.15 0.09 0.19 0.24 0.30 0.43 0.47 0.42 0.45 0.43 0.36 0.34 0.31 0.34 0.36 0.38 0.40 0.36 0.32 0.30 0.23 0.19 0.17 0.21 0.30 0.23 0.18
0.09 0.10 0.09 0.11 0.10 0.09 0.20 0.27 0.29 0.12 0.05 0.07 0.07 0.06 0.07 0.10 0.19 0.22 0.23 0.37 0.49 0.60 0.63 0.61 0.63 0.69 0.67 0.61 0.57 0.53 0.48 0.44 0.42 0.35 0.26 0.22 0.20 0.21 0.21 0.20 0.30 0.23 0.15
0.07 0.06 0.09 0.13 0.10 0.11 0.29 0.22 0.25 0.10 0.10 0.13 0.13 0.15 0.19 0.16 0.42 0.34 0.21 0.28 0.38 0.44 0.55 0.54 0.50 0.55 0.60 0.52 0.43 0.35 0.37 0.41 0.45 0.38 0.30 0.23 0.23 0.26 0.28 0.27 0.28 0.26 0.16
0.05 0.07 0.09 0.13 0.22 0.15 0.33 0.23 0.19 0.12 0.22 0.22 0.22 0.27 0.51 0.33 0.44 0.27 0.16 0.11 0.21 0.28 0.29 0.36 0.40 0.40 0.37 0.38 0.45 0.35 0.32 0.43 0.58 0.59 0.51 0.39 0.35 0.32 0.33 0.32 0.29 0.23 0.19

GFSMA_prec_precacc24_093.txt.gz
Total_Precipitation_Accumulation
0.22 0.25 0.19 0.12 0.50 0.53 0.49 0.09 0.00 0.00 0.00 0.00 0.00 0.00 0.00 0.00 0.00 0.00 0.00 0.00 0.00 0.01 0.01 0.01 0.01 0.01 0.01 0.01 0.00 0.00 0.00 0.00 0.00 0.00 0.00 0.00 0.00 0.00 0.00 0.00 0.00 0.00 0.00
0.32 0.30 0.21 0.08 0.30 0.33 0.30 0.10 0.01 0.00 0.00 0.00 0.00 0.00 0.00 0.00 0.00 0.00 0.00 0.00 0.00 0.01 0.02 0.01 0.01 0.01 0.01 0.01 0.00 0.00 0.00 0.00 0.00 0.00 0.00 0.00 0.00 0.00 0.00 0.00 0.00 0.00 0.00
0.48 0.29 0.26 0.10 0.16 0.17 0.12 0.07 0.01 0.00 0.00 0.00 0.00 0.00 0.00 0.00 0.00 0.00 0.00 0.00 0.00 0.00 0.01 0.01 0.01 0.01 0.00 0.00 0.00 0.00 0.00 0.00 0.00 0.00 0.00 0.00 0.00 0.00 0.00 0.00 0.00 0.00 0.00
0.54 0.38 0.25 0.13 0.15 0.14 0.06 0.02 0.00 0.00 0.00 0.00 0.00 0.00 0.00 0.00 0.00 0.00 0.00 0.00 0.00 0.00 0.00 0.01 0.01 0.00 0.00 0.00 0.00 0.00 0.00 0.00 0.00 0.00 0.00 0.00 0.00 0.00 0.00 0.00 0.00 0.00 0.00
0.52 0.35 0.26 0.11 0.18 0.13 0.04 0.01 0.00 0.00 0.00 0.00 0.00 0.00 0.00 0.00 0.00 0.00 0.00 0.00 0.00 0.00 0.00 0.00 0.00 0.00 0.00 0.00 0.00 0.00 0.00 0.00 0.00 0.00 0.00 0.00 0.00 0.00 0.00 0.00 0.00 0.00 0.00
0.58 0.31 0.25 0.18 0.21 0.13 0.03 0.00 0.00 0.00 0.00 0.00 0.00 0.00 0.00 0.00 0.00 0.00 0.00 0.00 0.00 0.00 0.00 0.00 0.00 0.00 0.00 0.00 0.00 0.00 0.00 0.00 0.00 0.00 0.00 0.00 0.00 0.00 0.00 0.00 0.00 0.00 0.00
0.67 0.25 0.12 0.14 0.09 0.05 0.01 0.00 0.00 0.02 0.01 0.00 0.00 0.00 0.00 0.00 0.00 0.00 0.00 0.00 0.00 0.00 0.00 0.00 0.00 0.00 0.00 0.00 0.00 0.00 0.00 0.00 0.00 0.00 0.00 0.00 0.00 0.00 0.00 0.00 0.00 0.00 0.00
0.45 0.29 0.12 0.05 0.02 0.02 0.01 0.00 0.00 0.01 0.02 0.04 0.02 0.02 0.02 0.01 0.00 0.00 0.00 0.00 0.00 0.00 0.00 0.00 0.00 0.00 0.00 0.00 0.00 0.00 0.00 0.00 0.00 0.01 0.00 0.00 0.00 0.00 0.00 0.00 0.00 0.00 0.00
0.30 0.36 0.21 0.11 0.03 0.02 0.01 0.00 0.00 0.01 0.07 0.04 0.02 0.13 0.17 0.14 0.14 0.03 0.00 0.00 0.00 0.00 0.00 0.00 0.00 0.00 0.00 0.00 0.00 0.00 0.00 0.00 0.00 0.01 0.02 0.01 0.00 0.00 0.00 0.00 0.00 0.00 0.00
0.26 0.32 0.30 0.18 0.06 0.03 0.03 0.02 0.00 0.01 0.17 0.21 0.03 0.01 0.04 0.15 0.20 0.21 0.08 0.01 0.00 0.00 0.00 0.00 0.00 0.00 0.00 0.00 0.00 0.00 0.00 0.00 0.00 0.00 0.01 0.07 0.07 0.02 0.01 0.01 0.01 0.01 0.01
0.24 0.32 0.34 0.26 0.14 0.07 0.10 0.13 0.07 0.07 0.13 0.19 0.06 0.09 0.05 0.10 0.10 0.09 0.09 0.08 0.02 0.00 0.01 0.02 0.02 0.00 0.00 0.00 0.00 0.00 0.00 0.00 0.00 0.00 0.00 0.01 0.07 0.11 0.08 0.05 0.05 0.06 0.07
0.17 0.21 0.38 0.30 0.20 0.15 0.15 0.14 0.15 0.17 0.21 0.19 0.10 0.08 0.06 0.07 0.07 0.09 0.04 0.08 0.11 0.03 0.01 0.02 0.03 0.03 0.01 0.00 0.00 0.00 0.00 0.00 0.00 0.00 0.00 0.00 0.00 0.03 0.06 0.07 0.08 0.08 0.10
0.05 0.03 0.10 0.18 0.16 0.10 0.07 0.13 0.13 0.15 0.15 0.11 0.09 0.04 0.05 0.04 0.05 0.14 0.16 0.13 0.19 0.17 0.10 0.07 0.06 0.05 0.02 0.00 0.00 0.00 0.00 0.00 0.00 0.00 0.00 0.00 0.00 0.00 0.00 0.01 0.02 0.05 0.08
0.01 0.02 0.01 0.05 0.07 0.04 0.04 0.05 0.05 0.06 0.07 0.07 0.08 0.08 0.05 0.04 0.05 0.13 0.13 0.13 0.10 0.06 0.04 0.02 0.01 0.00 0.00 0.00 0.00 0.00 0.00 0.00 0.00 0.00 0.00 0.00 0.00 0.00 0.00 0.00 0.00 0.01 0.02
0.00 0.02 0.02 0.02 0.05 0.03 0.02 0.03 0.03 0.03 0.04 0.04 0.05 0.06 0.07 0.07 0.09 0.06 0.10 0.10 0.12 0.05 0.02 0.01 0.00 0.00 0.00 0.00 0.00 0.00 0.00 0.00 0.00 0.00 0.00 0.00 0.00 0.00 0.00 0.00 0.00 0.00 0.01
0.00 0.00 0.02 0.03 0.01 0.02 0.01 0.03 0.03 0.02 0.05 0.06 0.06 0.08 0.09 0.08 0.10 0.09 0.09 0.08 0.10 0.08 0.05 0.01 0.01 0.00 0.01 0.02 0.01 0.00 0.00 0.00 0.00 0.00 0.00 0.00 0.00 0.00 0.01 0.01 0.03 0.05 0.06
0.00 0.00 0.00 0.00 0.00 0.00 0.00 0.01 0.01 0.01 0.01 0.02 0.04 0.06 0.06 0.08 0.14 0.16 0.17 0.18 0.15 0.14 0.16 0.09 0.04 0.04 0.03 0.03 0.01 0.00 0.00 0.00 0.00 0.02 0.03 0.04 0.05 0.05 0.05 0.06 0.07 0.08 0.09
0.00 0.00 0.00 0.00 0.00 0.00 0.00 0.00 0.00 0.00 0.01 0.04 0.09 0.17 0.18 0.22 0.28 0.31 0.34 0.31 0.28 0.24 0.31 0.29 0.16 0.12 0.09 0.07 0.05 0.03 0.03 0.02 0.02 0.05 0.09 0.09 0.10 0.09 0.09 0.09 0.09 0.08 0.07
0.00 0.00 0.00 0.00 0.00 0.00 0.00 0.00 0.01 0.04 0.09 0.15 0.26 0.32 0.29 0.24 0.20 0.19 0.21 0.23 0.21 0.24 0.26 0.25 0.17 0.10 0.08 0.06 0.06 0.07 0.06 0.04 0.02 0.05 0.06 0.09 0.11 0.13 0.15 0.15 0.15 0.13 0.11
0.00 0.00 0.00 0.00 0.00 0.00 0.00 0.00 0.00 0.03 0.10 0.14 0.17 0.23 0.33 0.40 0.39 0.34 0.31 0.25 0.23 0.23 0.22 0.21 0.17 0.13 0.12 0.08 0.08 0.09 0.07 0.07 0.07 0.07 0.10 0.11 0.15 0.16 0.14 0.12 0.12 0.11 0.10
0.00 0.00 0.00 0.00 0.00 0.00 0.00 0.00 0.02 0.06 0.09 0.11 0.13 0.16 0.18 0.19 0.20 0.22 0.23 0.19 0.18 0.19 0.21 0.21 0.20 0.14 0.14 0.10 0.08 0.07 0.10 0.11 0.15 0.19 0.15 0.12 0.11 0.13 0.15 0.21 0.20 0.17 0.15
0.02 0.01 0.01 0.01 0.00 0.00 0.01 0.01 0.01 0.01 0.02 0.02 0.02 0.03 0.05 0.08 0.08 0.12 0.17 0.19 0.18 0.18 0.19 0.20 0.23 0.24 0.18 0.17 0.18 0.23 0.29 0.35 0.37 0.31 0.27 0.22 0.16 0.17 0.20 0.25 0.32 0.32 0.27
0.11 0.08 0.07 0.06 0.05 0.08 0.13 0.11 0.10 0.03 0.02 0.01 0.01 0.02 0.04 0.08 0.12 0.09 0.18 0.23 0.30 0.43 0.47 0.43 0.46 0.44 0.37 0.34 0.31 0.34 0.36 0.38 0.40 0.36 0.32 0.30 0.23 0.19 0.17 0.21 0.32 0.24 0.20
0.11 0.11 0.09 0.10 0.10 0.13 0.19 0.24 0.25 0.11 0.04 0.06 0.06 0.05 0.06 0.09 0.19 0.23 0.23 0.37 0.49 0.60 0.64 0.63 0.66 0.73 0.70 0.63 0.60 0.55 0.49 0.44 0.42 0.35 0.26 0.22 0.21 0.22 0.22 0.23 0.43 0.30 0.21
0.04 0.04 0.07 0.12 0.09 0.12 0.30 0.21 0.24 0.10 0.11 0.12 0.12 0.18 0.26 0.20 0.45 0.37 0.22 0.30 0.39 0.45 0.57 0.60 0.65 0.68 0.70 0.60 0.49 0.39 0.42 0.47 0.51 0.45 0.37 0.30 0.29 0.34 0.34 0.35 0.41 0.41 0.26
0.03 0.05 0.06 0.10 0.18 0.12 0.30 0.21 0.18 0.10 0.20 0.20 0.21 0.31 0.65 0.39 0.47 0.28 0.18 0.15 0.28 0.34 0.38 0.45 0.53 0.56 0.54 0.55 0.63 0.49 0.46 0.66 0.93 0.85 0.70 0.55 0.49 0.48 0.49 0.52 0.47 0.43 0.38

GFSMA_prec_precacc24_096.txt.gz
Total_Precipitation_Accumulation
0.24 0.26 0.21 0.21 0.58 0.56 0.64 0.31 0.18 0.12 0.05 0.02 0.00 0.00 0.00 0.00 0.00 0.00 0.00 0.00 0.01 0.01 0.01 0.02 0.02 0.02 0.02 0.01 0.00 0.00 0.00 0.00 0.00 0.00 0.00 0.00 0.00 0.00 0.00 0.00 0.00 0.00 0.00
0.34 0.33 0.26 0.17 0.34 0.34 0.50 0.47 0.16 0.09 0.04 0.00 0.00 0.00 0.00 0.00 0.00 0.00 0.00 0.00 0.01 0.01 0.02 0.02 0.02 0.01 0.01 0.01 0.00 0.00 0.00 0.00 0.00 0.00 0.00 0.00 0.00 0.00 0.00 0.00 0.00 0.00 0.00
0.51 0.36 0.34 0.18 0.18 0.19 0.23 0.34 0.13 0.07 0.02 0.00 0.00 0.00 0.00 0.00 0.00 0.00 0.00 0.00 0.00 0.01 0.02 0.03 0.02 0.01 0.01 0.00 0.00 0.00 0.00 0.00 0.00 0.00 0.00 0.00 0.00 0.00 0.00 0.00 0.00 0.00 0.00
0.57 0.46 0.34 0.18 0.18 0.16 0.11 0.17 0.05 0.04 0.02 0.01 0.00 0.00 0.00 0.00 0.00 0.00 0.00 0.00 0.00 0.00 0.01 0.02 0.02 0.01 0.01 0.00 0.00 0.00 0.00 0.00 0.00 0.00 0.00 0.00 0.00 0.00 0.00 0.00 0.00 0.00 0.00
0.56 0.43 0.40 0.24 0.23 0.19 0.09 0.08 0.03 0.03 0.01 0.01 0.00 0.00 0.00 0.00 0.00 0.00 0.00 0.00 0.00 0.00 0.00 0.00 0.00 0.00 0.00 0.00 0.00 0.00 0.00 0.00 0.00 0.00 0.00 0.00 0.00 0.00 0.00 0.00 0.00 0.00 0.00
0.68 0.54 0.54 0.33 0.33 0.23 0.17 0.09 0.03 0.03 0.02 0.00 0.00 0.00 0.00 0.00 0.00 0.00 0.00 0.00 0.00 0.00 0.00 0.00 0.00 0.00 0.00 0.00 0.00 0.00 0.00 0.00 0.00 0.00 0.00 0.00 0.00 0.00 0.00 0.00 0.00 0.00 0.00
0.82 0.51 0.42 0.34 0.23 0.16 0.11 0.05 0.01 0.01 0.01 0.00 0.00 0.00 0.00 0.00 0.00 0.00 0.00 0.00 0.00 0.00 0.00 0.00 0.00 0.00 0.00 0.00 0.00 0.00 0.00 0.01 0.00 0.00 0.00 0.00 0.00 0.00 0.00 0.00 0.00 0.00 0.00
0.66 0.53 0.35 0.22 0.16 0.13 0.10 0.04 0.01 0.01 0.00 0.01 0.00 0.01 0.02 0.01 0.00 0.00 0.00 0.00 0.00 0.00 0.00 0.00 0.00 0.00 0.00 0.00 0.00 0.00 0.00 0.00 0.01 0.01 0.00 0.00 0.00 0.00 0.00 0.00 0.00 0.00 0.00
0.50 0.45 0.40 0.22 0.13 0.11 0.05 0.01 0.00 0.01 0.06 0.01 0.01 0.12 0.16 0.12 0.12 0.03 0.00 0.00 0.00 0.00 0.00 0.00 0.00 0.00 0.00 0.00 0.00 0.00 0.00 0.00 0.00 0.01 0.03 0.02 0.00 0.00 0.00 0.00 0.00 0.00 0.00
0.34 0.42 0.38 0.29 0.13 0.11 0.04 0.01 0.00 0.00 0.14 0.14 0.02 0.01 0.04 0.13 0.18 0.20 0.08 0.01 0.00 0.00 0.00 0.00 0.00 0.00 0.00 0.00 0.00 0.00 0.00 0.00 0.00 0.00 0.01 0.07 0.07 0.02 0.01 0.01 0.01 0.01 0.01
0.23 0.39 0.43 0.31 0.16 0.08 0.05 0.06 0.04 0.06 0.12 0.12 0.03 0.08 0.05 0.10 0.10 0.09 0.08 0.06 0.01 0.00 0.00 0.00 0.01 0.00 0.00 0.00 0.00 0.00 0.00 0.00 0.00 0.00 0.00 0.01 0.07 0.12 0.08 0.03 0.04 0.05 0.06
0.15 0.27 0.48 0.36 0.21 0.14 0.11 0.09 0.10 0.11 0.17 0.16 0.07 0.06 0.05 0.07 0.07 0.08 0.04 0.07 0.09 0.02 0.00 0.00 0.02 0.03 0.01 0.00 0.00 0.00 0.00 0.00 0.00 0.00 0.00 0.00 0.00 0.03 0.06 0.07 0.05 0.04 0.06
0.05 0.08 0.18 0.29 0.23 0.15 0.11 0.13 0.11 0.12 0.13 0.09 0.08 0.05 0.05 0.03 0.03 0.11 0.08 0.03 0.07 0.08 0.03 0.03 0.04 0.05 0.02 0.00 0.00 0.00 0.00 0.00 0.00 0.00 0.00 0.00 0.00 0.00 0.00 0.01 0.02 0.04 0.06
0.01 0.02 0.03 0.10 0.14 0.15 0.07 0.07 0.07 0.07 0.07 0.07 0.07 0.07 0.05 0.04 0.04 0.10 0.08 0.07 0.04 0.03 0.03 0.02 0.01 0.00 0.00 0.00 0.00 0.00 0.00 0.00 0.00 0.00 0.00 0.00 0.00 0.00 0.00 0.00 0.00 0.00 0.01
0.00 0.02 0.02 0.04 0.11 0.17 0.12 0.04 0.04 0.03 0.05 0.04 0.05 0.06 0.07 0.05 0.06 0.05 0.08 0.07 0.09 0.05 0.02 0.00 0.00 0.00 0.00 0.00 0.00 0.00 0.00 0.00 0.00 0.00 0.00 0.00 0.00 0.00 0.00 0.00 0.00 0.00 0.01
0.00 0.00 0.03 0.05 0.04 0.08 0.13 0.06 0.03 0.03 0.05 0.05 0.06 0.08 0.09 0.07 0.09 0.09 0.09 0.09 0.11 0.09 0.06 0.00 0.00 0.00 0.01 0.02 0.01 0.00 0.00 0.00 0.00 0.00 0.00 0.00 0.00 0.00 0.01 0.01 0.03 0.05 0.06
0.00 0.00 0.00 0.02 0.04 0.01 0.03 0.02 0.01 0.02 0.02 0.02 0.03 0.05 0.04 0.04 0.09 0.11 0.13 0.15 0.13 0.13 0.17 0.09 0.04 0.04 0.03 0.03 0.01 0.00 0.00 0.00 0.00 0.02 0.03 0.04 0.05 0.05 0.05 0.06 0.07 0.08 0.09
0.00 0.00 0.00 0.00 0.00 0.00 0.00 0.00 0.00 0.00 0.00 0.00 0.01 0.02 0.02 0.04 0.07 0.09 0.18 0.25 0.25 0.23 0.34 0.31 0.16 0.12 0.09 0.07 0.05 0.03 0.03 0.02 0.02 0.05 0.09 0.09 0.10 0.09 0.09 0.09 0.09 0.08 0.07
0.00 0.00 0.01 0.00 0.00 0.00 0.00 0.00 0.00 0.00 0.00 0.00 0.01 0.02 0.02 0.04 0.06 0.08 0.12 0.16 0.16 0.21 0.26 0.26 0.17 0.11 0.09 0.07 0.08 0.07 0.06 0.04 0.02 0.05 0.06 0.09 0.11 0.13 0.15 0.15 0.15 0.13 0.11
0.00 0.00 0.00 0.00 0.00 0.00 0.00 0.00 0.00 0.00 0.00 0.00 0.00 0.01 0.03 0.07 0.14 0.22 0.29 0.25 0.24 0.26 0.25 0.23 0.17 0.13 0.13 0.08 0.10 0.10 0.08 0.07 0.07 0.07 0.10 0.11 0.15 0.16 0.14 0.12 0.12 0.11 0.10
0.00 0.00 0.00 0.00 0.00 0.00 0.00 0.00 0.00 0.00 0.00 0.00 0.01 0.04 0.08 0.13 0.16 0.19 0.23 0.20 0.21 0.23 0.25 0.26 0.21 0.15 0.14 0.10 0.09 0.08 0.11 0.11 0.16 0.19 0.15 0.13 0.12 0.13 0.15 0.21 0.20 0.17 0.15
0.03 0.01 0.01 0.02 0.01 0.01 0.02 0.00 0.00 0.00 0.00 0.00 0.01 0.02 0.03 0.04 0.06 0.10 0.15 0.18 0.18 0.19 0.20 0.21 0.24 0.24 0.18 0.17 0.18 0.24 0.29 0.35 0.37 0.31 0.27 0.22 0.17 0.17 0.21 0.25 0.32 0.33 0.27
0.12 0.10 0.09 0.08 0.09 0.13 0.18 0.11 0.10 0.02 0.01 0.01 0.01 0.01 0.02 0.05 0.09 0.08 0.16 0.21 0.29 0.43 0.48 0.45 0.47 0.46 0.40 0.40 0.36 0.35 0.37 0.39 0.40 0.37 0.33 0.30 0.24 0.20 0.17 0.23 0.36 0.25 0.21
0.12 0.12 0.10 0.12 0.12 0.17 0.23 0.24 0.23 0.10 0.03 0.05 0.07 0.07 0.07 0.08 0.17 0.23 0.23 0.37 0.50 0.62 0.72 0.81 0.92 1.03 1.00 0.82 0.72 0.66 0.62 0.58 0.52 0.49 0.36 0.32 0.32 0.31 0.29 0.30 0.59 0.35 0.24
0.05 0.04 0.07 0.12 0.08 0.11 0.28 0.18 0.21 0.09 0.09 0.10 0.12 0.19 0.23 0.13 0.34 0.28 0.16 0.25 0.37 0.47 0.68 0.71 0.78 0.77 0.76 0.66 0.57 0.53 0.68 0.81 0.84 0.77 0.65 0.55 0.52 0.52 0.49 0.47 0.56 0.58 0.35
0.02 0.04 0.05 0.09 0.16 0.11 0.28 0.20 0.16 0.10 0.19 0.18 0.19 0.26 0.59 0.33 0.40 0.26 0.16 0.15 0.29 0.40 0.47 0.53 0.63 0.64 0.60 0.61 0.71 0.56 0.57 0.85 1.21 1.19 1.01 0.80 0.72 0.73 0.77 0.78 0.69 0.62 0.54

GFSMA_prec_precacc24_099.txt.gz
Total_Precipitation_Accumulation
0.25 0.28 0.25 0.28 0.67 0.61 0.69 0.34 0.19 0.24 0.26 0.25 0.10 0.03 0.00 0.00 0.00 0.00 0.00 0.00 0.02 0.01 0.01 0.03 0.03 0.02 0.02 0.01 0.00 0.00 0.00 0.00 0.00 0.00 0.00 0.00 0.00 0.00 0.00 0.00 0.00 0.00 0.00
0.37 0.35 0.31 0.23 0.42 0.39 0.52 0.47 0.17 0.22 0.25 0.17 0.07 0.00 0.00 0.00 0.00 0.00 0.00 0.00 0.01 0.02 0.03 0.03 0.03 0.02 0.01 0.01 0.00 0.00 0.00 0.00 0.00 0.00 0.00 0.00 0.00 0.00 0.00 0.00 0.00 0.00 0.00
0.55 0.40 0.39 0.26 0.24 0.26 0.24 0.35 0.23 0.29 0.26 0.16 0.02 0.00 0.00 0.00 0.00 0.00 0.00 0.00 0.01 0.01 0.03 0.04 0.03 0.02 0.01 0.01 0.00 0.00 0.00 0.00 0.00 0.00 0.00 0.00 0.00 0.00 0.00 0.00 0.00 0.00 0.00
0.61 0.55 0.41 0.26 0.25 0.21 0.14 0.18 0.11 0.21 0.23 0.09 0.02 0.00 0.00 0.00 0.00 0.00 0.00 0.00 0.00 0.00 0.01 0.03 0.03 0.02 0.01 0.01 0.00 0.00 0.00 0.00 0.00 0.00 0.00 0.00 0.00 0.00 0.00 0.00 0.00 0.00 0.00
0.58 0.53 0.49 0.32 0.28 0.22 0.10 0.09 0.07 0.11 0.16 0.09 0.01 0.00 0.00 0.00 0.00 0.00 0.00 0.00 0.00 0.00 0.00 0.01 0.01 0.01 0.01 0.01 0.00 0.00 0.00 0.00 0.00 0.00 0.00 0.00 0.00 0.00 0.00 0.00 0.00 0.00 0.00
0.69 0.57 0.62 0.47 0.37 0.28 0.19 0.10 0.06 0.12 0.13 0.05 0.00 0.00 0.00 0.00 0.00 0.00 0.00 0.00 0.00 0.00 0.00 0.00 0.00 0.00 0.00 0.01 0.00 0.00 0.00 0.00 0.00 0.00 0.00 0.00 0.00 0.00 0.00 0.00 0.00 0.00 0.00
0.86 0.59 0.60 0.56 0.40 0.25 0.17 0.09 0.04 0.06 0.12 0.07 0.02 0.01 0.01 0.01 0.00 0.00 0.00 0.00 0.00 0.00 0.00 0.00 0.00 0.00 0.00 0.00 0.00 0.00 0.00 0.01 0.00 0.00 0.00 0.00 0.00 0.00 0.00 0.00 0.00 0.00 0.00
0.68 0.60 0.62 0.52 0.36 0.27 0.27 0.18 0.05 0.05 0.07 0.06 0.02 0.00 0.02 0.02 0.00 0.00 0.00 0.00 0.00 0.00 0.00 0.00 0.00 0.00 0.00 0.00 0.00 0.00 0.00 0.01 0.01 0.01 0.00 0.00 0.00 0.00 0.00 0.00 0.00 0.00 0.00
0.51 0.49 0.57 0.55 0.29 0.25 0.18 0.15 0.06 0.03 0.03 0.04 0.02 0.04 0.05 0.04 0.05 0.01 0.00 0.00 0.00 0.00 0.00 0.00 0.00 0.00 0.00 0.00 0.00 0.00 0.00 0.00 0.00 0.01 0.03 0.01 0.00 0.00 0.00 0.00 0.00 0.00 0.00
0.35 0.43 0.42 0.48 0.27 0.26 0.20 0.11 0.05 0.03 0.06 0.03 0.02 0.02 0.03 0.05 0.06 0.09 0.06 0.01 0.00 0.00 0.00 0.00 0.00 0.00 0.00 0.00 0.00 0.00 0.00 0.00 0.00 0.00 0.01 0.07 0.07 0.02 0.00 0.00 0.00 0.00 0.01
0.23 0.39 0.46 0.49 0.35 0.26 0.20 0.10 0.03 0.07 0.07 0.02 0.00 0.04 0.05 0.10 0.09 0.06 0.06 0.04 0.01 0.00 0.00 0.00 0.00 0.00 0.00 0.00 0.00 0.00 0.00 0.00 0.00 0.00 0.00 0.01 0.07 0.12 0.08 0.03 0.02 0.03 0.04
0.11 0.27 0.52 0.51 0.42 0.32 0.24 0.11 0.07 0.08 0.12 0.09 0.02 0.03 0.02 0.04 0.05 0.07 0.03 0.05 0.04 0.00 0.00 0.00 0.00 0.00 0.00 0.00 0.00 0.00 0.00 0.00 0.00 0.00 0.00 0.00 0.00 0.03 0.06 0.07 0.05 0.03 0.02
0.03 0.07 0.18 0.37 0.36 0.31 0.21 0.14 0.11 0.12 0.10 0.07 0.04 0.03 0.03 0.03 0.02 0.07 0.06 0.03 0.06 0.07 0.02 0.00 0.00 0.00 0.00 0.00 0.00 0.00 0.00 0.00 0.00 0.00 0.00 0.00 0.00 0.00 0.00 0.01 0.02 0.04 0.05
0.01 0.02 0.04 0.13 0.26 0.29 0.17 0.15 0.13 0.10 0.10 0.06 0.04 0.05 0.06 0.04 0.02 0.08 0.07 0.06 0.04 0.02 0.01 0.00 0.00 0.00 0.00 0.00 0.00 0.00 0.00 0.00 0.00 0.00 0.00 0.00 0.00 0.00 0.00 0.00 0.00 0.00 0.01
0.00 0.02 0.02 0.06 0.17 0.22 0.21 0.13 0.10 0.09 0.09 0.08 0.07 0.06 0.05 0.04 0.05 0.04 0.08 0.07 0.08 0.04 0.01 0.00 0.00 0.00 0.00 0.00 0.00 0.00 0.00 0.00 0.00 0.00 0.00 0.00 0.00 0.00 0.00 0.00 0.00 0.00 0.01
0.00 0.00 0.03 0.05 0.06 0.11 0.18 0.11 0.03 0.02 0.03 0.03 0.03 0.04 0.07 0.05 0.06 0.07 0.10 0.09 0.12 0.11 0.07 0.00 0.00 0.00 0.01 0.02 0.01 0.00 0.00 0.00 0.00 0.00 0.00 0.00 0.00 0.00 0.01 0.01 0.03 0.05 0.06
0.00 0.01 0.00 0.02 0.04 0.02 0.06 0.11 0.06 0.01 0.01 0.00 0.00 0.02 0.02 0.03 0.06 0.08 0.11 0.14 0.12 0.11 0.11 0.03 0.00 0.01 0.04 0.03 0.01 0.00 0.00 0.00 0.00 0.02 0.03 0.04 0.05 0.05 0.05 0.06 0.07 0.08 0.09
0.00 0.01 0.01 0.00 0.00 0.00 0.01 0.02 0.04 0.01 0.00 0.01 0.00 0.00 0.01 0.02 0.03 0.05 0.07 0.06 0.05 0.05 0.11 0.12 0.05 0.05 0.08 0.07 0.05 0.04 0.03 0.02 0.02 0.05 0.09 0.09 0.10 0.09 0.09 0.09 0.09 0.08 0.07
0.01 0.01 0.02 0.01 0.00 0.00 0.00 0.00 0.01 0.01 0.00 0.00 0.00 0.01 0.00 0.02 0.03 0.02 0.03 0.04 0.03 0.05 0.07 0.10 0.08 0.06 0.06 0.07 0.08 0.07 0.06 0.04 0.02 0.05 0.06 0.09 0.11 0.13 0.15 0.15 0.15 0.13 0.11
0.02 0.01 0.02 0.02 0.01 0.01 0.00 0.01 0.01 0.01 0.00 0.00 0.00 0.00 0.01 0.02 0.02 0.05 0.09 0.11 0.14 0.18 0.19 0.17 0.10 0.11 0.13 0.08 0.13 0.11 0.09 0.07 0.07 0.07 0.10 0.11 0.15 0.16 0.14 0.12 0.12 0.11 0.10
0.01 0.01 0.01 0.01 0.02 0.03 0.02 0.01 0.00 0.01 0.01 0.00 0.00 0.00 0.00 0.01 0.03 0.05 0.09 0.12 0.22 0.25 0.26 0.27 0.19 0.15 0.15 0.12 0.11 0.10 0.15 0.12 0.19 0.23 0.17 0.15 0.14 0.15 0.17 0.22 0.21 0.18 0.15
0.03 0.02 0.02 0.02 0.02 0.01 0.02 0.01 0.01 0.01 0.01 0.00 0.00 0.00 0.00 0.01 0.01 0.03 0.06 0.09 0.12 0.13 0.14 0.21 0.25 0.24 0.17 0.18 0.20 0.27 0.33 0.39 0.39 0.32 0.29 0.23 0.18 0.21 0.23 0.26 0.33 0.33 0.28
0.13 0.11 0.10 0.10 0.11 0.14 0.21 0.12 0.10 0.02 0.02 0.02 0.02 0.02 0.02 0.02 0.06 0.05 0.10 0.17 0.24 0.37 0.46 0.46 0.46 0.46 0.48 0.56 0.52 0.48 0.48 0.51 0.52 0.45 0.40 0.38 0.37 0.34 0.29 0.33 0.46 0.28 0.22
0.15 0.15 0.13 0.15 0.15 0.20 0.26 0.25 0.24 0.11 0.06 0.10 0.10 0.07 0.06 0.05 0.13 0.17 0.18 0.32 0.45 0.59 0.72 0.91 1.11 1.20 1.22 1.00 0.87 0.81 0.75 0.71 0.67 0.66 0.56 0.54 0.50 0.47 0.44 0.44 0.73 0.41 0.27
0.17 0.11 0.11 0.14 0.10 0.12 0.27 0.15 0.17 0.08 0.12 0.14 0.15 0.19 0.19 0.09 0.24 0.17 0.09 0.13 0.23 0.34 0.58 0.62 0.72 0.76 0.77 0.67 0.58 0.55 0.73 0.90 0.97 0.92 0.81 0.71 0.66 0.66 0.64 0.59 0.65 0.67 0.41
0.18 0.17 0.16 0.16 0.19 0.09 0.23 0.14 0.10 0.07 0.15 0.14 0.15 0.22 0.50 0.27 0.27 0.17 0.11 0.10 0.21 0.32 0.39 0.45 0.58 0.65 0.63 0.64 0.76 0.59 0.59 0.89 1.26 1.25 1.07 0.86 0.78 0.77 0.82 0.84 0.75 0.67 0.58

GFSMA_prec_precacc24_102.txt.gz
Total_Precipitation_Accumulation
0.24 0.26 0.22 0.34 0.75 0.72 0.76 0.38 0.20 0.24 0.27 0.33 0.28 0.20 0.03 0.02 0.01 0.00 0.00 0.00 0.02 0.02 0.02 0.03 0.04 0.03 0.02 0.02 0.01 0.00 0.00 0.00 0.00 0.00 0.00 0.00 0.00 0.00 0.00 0.00 0.00 0.00 0.00
0.35 0.36 0.32 0.28 0.48 0.52 0.60 0.48 0.18 0.22 0.25 0.24 0.26 0.14 0.01 0.02 0.01 0.00 0.00 0.00 0.01 0.02 0.03 0.03 0.03 0.03 0.02 0.01 0.00 0.00 0.00 0.00 0.00 0.00 0.00 0.00 0.00 0.00 0.00 0.00 0.00 0.00 0.00
0.49 0.39 0.40 0.29 0.29 0.33 0.29 0.38 0.26 0.30 0.28 0.26 0.20 0.12 0.01 0.00 0.00 0.00 0.00 0.00 0.01 0.02 0.03 0.04 0.04 0.03 0.02 0.01 0.00 0.00 0.00 0.00 0.00 0.00 0.00 0.00 0.00 0.00 0.00 0.00 0.00 0.00 0.00
0.57 0.52 0.41 0.32 0.34 0.28 0.18 0.20 0.11 0.22 0.31 0.26 0.20 0.08 0.01 0.00 0.00 0.00 0.00 0.00 0.00 0.00 0.02 0.03 0.03 0.03 0.02 0.01 0.00 0.00 0.00 0.00 0.00 0.00 0.00 0.00 0.00 0.00 0.00 0.00 0.00 0.00 0.00
0.58 0.52 0.49 0.37 0.37 0.31 0.15 0.10 0.07 0.11 0.23 0.26 0.17 0.07 0.00 0.00 0.00 0.00 0.00 0.00 0.00 0.00 0.00 0.01 0.01 0.01 0.01 0.01 0.00 0.01 0.01 0.00 0.00 0.00 0.00 0.00 0.00 0.00 0.00 0.00 0.00 0.00 0.00
0.69 0.58 0.62 0.49 0.41 0.31 0.22 0.11 0.06 0.13 0.16 0.15 0.12 0.05 0.00 0.00 0.00 0.00 0.00 0.00 0.00 0.00 0.00 0.00 0.00 0.00 0.00 0.01 0.01 0.01 0.01 0.00 0.00 0.00 0.00 0.00 0.00 0.00 0.00 0.00 0.00 0.00 0.00
0.87 0.62 0.62 0.57 0.43 0.27 0.18 0.11 0.04 0.07 0.20 0.19 0.12 0.04 0.02 0.01 0.00 0.00 0.00 0.00 0.00 0.00 0.00 0.00 0.00 0.00 0.00 0.00 0.00 0.00 0.00 0.01 0.00 0.00 0.00 0.00 0.00 0.00 0.00 0.00 0.00 0.00 0.00
0.70 0.62 0.63 0.52 0.40 0.36 0.33 0.21 0.06 0.06 0.15 0.18 0.09 0.01 0.04 0.04 0.01 0.00 0.00 0.00 0.00 0.00 0.00 0.00 0.00 0.00 0.00 0.00 0.00 0.00 0.00 0.01 0.01 0.00 0.00 0.00 0.00 0.00 0.00 0.00 0.00 0.00 0.00
0.52 0.50 0.58 0.59 0.42 0.43 0.46 0.31 0.09 0.04 0.06 0.16 0.07 0.01 0.01 0.02 0.01 0.01 0.00 0.00 0.00 0.00 0.00 0.00 0.00 0.00 0.00 0.00 0.00 0.00 0.00 0.00 0.00 0.01 0.03 0.01 0.00 0.00 0.00 0.00 0.00 0.00 0.00
0.35 0.43 0.42 0.53 0.38 0.42 0.39 0.31 0.15 0.08 0.06 0.07 0.04 0.01 0.00 0.02 0.00 0.02 0.01 0.00 0.00 0.00 0.00 0.00 0.00 0.00 0.00 0.00 0.00 0.00 0.00 0.00 0.00 0.00 0.02 0.08 0.07 0.01 0.00 0.00 0.00 0.00 0.00
0.23 0.39 0.46 0.50 0.44 0.41 0.33 0.22 0.17 0.12 0.08 0.05 0.00 0.01 0.01 0.04 0.03 0.01 0.01 0.01 0.00 0.00 0.00 0.00 0.00 0.00 0.00 0.00 0.00 0.00 0.00 0.00 0.00 0.00 0.00 0.01 0.07 0.12 0.08 0.02 0.01 0.01 0.02
0.11 0.27 0.52 0.52 0.49 0.46 0.43 0.24 0.16 0.13 0.12 0.11 0.04 0.03 0.01 0.02 0.03 0.03 0.01 0.02 0.01 0.00 0.00 0.00 0.00 0.00 0.00 0.00 0.00 0.00 0.00 0.00 0.00 0.00 0.00 0.00 0.00 0.03 0.06 0.07 0.05 0.03 0.02
0.03 0.08 0.18 0.37 0.41 0.45 0.42 0.37 0.26 0.19 0.18 0.14 0.08 0.05 0.03 0.03 0.01 0.02 0.01 0.01 0.02 0.01 0.01 0.00 0.00 0.00 0.00 0.00 0.00 0.00 0.00 0.00 0.00 0.00 0.00 0.00 0.00 0.00 0.00 0.01 0.02 0.04 0.06
0.01 0.02 0.04 0.13 0.29 0.42 0.35 0.34 0.31 0.20 0.18 0.15 0.08 0.05 0.04 0.03 0.01 0.02 0.02 0.03 0.02 0.01 0.02 0.00 0.00 0.00 0.00 0.00 0.00 0.00 0.00 0.00 0.00 0.00 0.00 0.00 0.00 0.00 0.00 0.00 0.00 0.00 0.01
0.01 0.02 0.02 0.06 0.18 0.27 0.31 0.25 0.26 0.25 0.21 0.17 0.11 0.06 0.04 0.03 0.02 0.02 0.05 0.04 0.07 0.05 0.01 0.00 0.00 0.00 0.00 0.00 0.00 0.00 0.00 0.00 0.00 0.00 0.00 0.00 0.00 0.00 0.00 0.00 0.00 0.00 0.01
0.00 0.00 0.03 0.05 0.06 0.12 0.21 0.18 0.12 0.11 0.13 0.10 0.10 0.07 0.05 0.03 0.03 0.03 0.06 0.08 0.10 0.11 0.07 0.00 0.00 0.00 0.01 0.03 0.02 0.01 0.00 0.00 0.00 0.00 0.00 0.00 0.00 0.00 0.01 0.01 0.03 0.05 0.06
0.00 0.01 0.00 0.02 0.04 0.03 0.07 0.12 0.09 0.05 0.02 0.02 0.02 0.02 0.01 0.01 0.03 0.03 0.05 0.06 0.07 0.09 0.11 0.03 0.00 0.00 0.01 0.01 0.00 0.00 0.00 0.00 0.00 0.02 0.03 0.04 0.05 0.05 0.05 0.06 0.07 0.08 0.09
0.01 0.01 0.01 0.00 0.00 0.01 0.01 0.03 0.07 0.06 0.07 0.04 0.02 0.01 0.00 0.01 0.01 0.02 0.03 0.04 0.03 0.04 0.10 0.11 0.03 0.03 0.03 0.02 0.03 0.03 0.02 0.01 0.02 0.05 0.09 0.09 0.10 0.09 0.09 0.09 0.09 0.08 0.07
0.01 0.02 0.03 0.01 0.00 0.00 0.01 0.02 0.01 0.02 0.02 0.01 0.02 0.02 0.01 0.01 0.01 0.01 0.01 0.02 0.02 0.03 0.03 0.04 0.02 0.03 0.03 0.02 0.04 0.04 0.04 0.03 0.02 0.05 0.06 0.09 0.11 0.13 0.15 0.15 0.15 0.13 0.11
0.02 0.02 0.03 0.02 0.02 0.01 0.01 0.02 0.02 0.02 0.01 0.00 0.00 0.00 0.00 0.00 0.00 0.01 0.05 0.05 0.08 0.11 0.11 0.10 0.05 0.05 0.07 0.03 0.09 0.08 0.07 0.06 0.06 0.07 0.11 0.12 0.16 0.16 0.15 0.13 0.12 0.11 0.10
0.02 0.02 0.03 0.05 0.04 0.03 0.02 0.01 0.00 0.01 0.01 0.00 0.00 0.00 0.00 0.00 0.00 0.01 0.04 0.08 0.16 0.18 0.18 0.22 0.17 0.12 0.12 0.09 0.09 0.11 0.16 0.12 0.19 0.28 0.25 0.21 0.20 0.21 0.21 0.27 0.24 0.21 0.18
0.04 0.03 0.03 0.02 0.03 0.02 0.05 0.01 0.01 0.01 0.01 0.01 0.02 0.02 0.01 0.01 0.00 0.00 0.03 0.06 0.08 0.09 0.08 0.10 0.15 0.18 0.13 0.15 0.16 0.22 0.27 0.32 0.37 0.35 0.33 0.29 0.25 0.30 0.34 0.33 0.39 0.36 0.29
0.14 0.12 0.12 0.10 0.11 0.15 0.23 0.13 0.11 0.03 0.05 0.07 0.05 0.04 0.05 0.05 0.05 0.01 0.03 0.04 0.04 0.09 0.16 0.22 0.26 0.31 0.39 0.50 0.48 0.46 0.49 0.55 0.57 0.53 0.48 0.46 0.47 0.48 0.45 0.47 0.55 0.31 0.24
0.16 0.16 0.14 0.16 0.15 0.21 0.27 0.25 0.24 0.11 0.06 0.10 0.11 0.08 0.06 0.05 0.12 0.11 0.04 0.07 0.12 0.24 0.43 0.63 0.87 1.03 1.09 0.87 0.70 0.65 0.62 0.63 0.67 0.73 0.64 0.61 0.56 0.55 0.52 0.50 0.79 0.45 0.29
0.21 0.14 0.13 0.16 0.12 0.13 0.30 0.16 0.18 0.08 0.14 0.18 0.20 0.25 0.24 0.12 0.26 0.18 0.09 0.12 0.17 0.30 0.54 0.51 0.56 0.56 0.55 0.48 0.43 0.45 0.67 0.86 0.95 0.91 0.82 0.73 0.69 0.68 0.65 0.60 0.67 0.70 0.42
0.47 0.39 0.34 0.31 0.31 0.16 0.32 0.23 0.20 0.19 0.27 0.28 0.27 0.29 0.54 0.37 0.35 0.28 0.23 0.23 0.27 0.36 0.40 0.41 0.49 0.53 0.50 0.53 0.67 0.52 0.55 0.86 1.25 1.24 1.06 0.86 0.78 0.78 0.82 0.84 0.75 0.68 0.59

GFSMA_prec_precacc24_105.txt.gz
Total_Precipitation_Accumulation
0.23 0.24 0.21 0.34 0.75 0.72 0.76 0.38 0.20 0.24 0.27 0.33 0.28 0.21 0.04 0.11 0.03 0.01 0.00 0.00 0.02 0.02 0.02 0.03 0.04 0.04 0.03 0.03 0.01 0.00 0.00 0.00 0.00 0.00 0.00 0.00 0.00 0.00 0.00 0.00 0.00 0.00 0.00
0.34 0.35 0.32 0.29 0.48 0.53 0.62 0.50 0.18 0.26 0.27 0.24 0.26 0.15 0.05 0.12 0.03 0.00 0.00 0.00 0.01 0.02 0.03 0.04 0.04 0.04 0.03 0.02 0.01 0.01 0.00 0.00 0.00 0.00 0.00 0.00 0.00 0.00 0.00 0.00 0.00 0.00 0.00
0.46 0.39 0.40 0.29 0.31 0.38 0.34 0.44 0.37 0.35 0.29 0.26 0.22 0.16 0.07 0.08 0.02 0.00 0.00 0.00 0.01 0.02 0.03 0.04 0.05 0.04 0.02 0.01 0.01 0.00 0.00 0.01 0.01 0.00 0.00 0.00 0.00 0.00 0.00 0.00 0.00 0.00 0.00
0.55 0.52 0.41 0.32 0.38 0.34 0.21 0.30 0.20 0.26 0.31 0.26 0.21 0.12 0.09 0.04 0.02 0.00 0.00 0.00 0.00 0.00 0.02 0.04 0.04 0.04 0.02 0.02 0.00 0.00 0.00 0.00 0.00 0.00 0.00 0.00 0.00 0.00 0.00 0.00 0.00 0.00 0.00
0.55 0.51 0.49 0.37 0.38 0.37 0.21 0.17 0.10 0.12 0.23 0.27 0.20 0.16 0.10 0.04 0.00 0.00 0.00 0.00 0.00 0.00 0.00 0.01 0.02 0.02 0.01 0.02 0.01 0.01 0.01 0.01 0.00 0.00 0.00 0.00 0.00 0.00 0.00 0.00 0.00 0.00 0.00
0.69 0.58 0.61 0.43 0.35 0.30 0.28 0.19 0.10 0.14 0.17 0.16 0.19 0.19 0.11 0.03 0.00 0.00 0.00 0.00 0.00 0.00 0.00 0.01 0.01 0.01 0.00 0.01 0.01 0.01 0.01 0.00 0.00 0.00 0.00 0.00 0.00 0.00 0.00 0.00 0.00 0.00 0.00
0.87 0.62 0.62 0.50 0.40 0.25 0.17 0.13 0.09 0.08 0.20 0.20 0.23 0.28 0.14 0.03 0.01 0.00 0.00 0.00 0.00 0.00 0.00 0.00 0.00 0.00 0.00 0.00 0.00 0.00 0.00 0.01 0.00 0.00 0.00 0.00 0.00 0.00 0.00 0.00 0.00 0.00 0.00
0.70 0.62 0.63 0.52 0.40 0.35 0.34 0.23 0.09 0.07 0.15 0.20 0.13 0.12 0.09 0.06 0.02 0.00 0.00 0.00 0.00 0.00 0.00 0.00 0.00 0.00 0.00 0.00 0.00 0.00 0.00 0.01 0.01 0.00 0.00 0.00 0.00 0.00 0.00 0.00 0.00 0.00 0.00
0.52 0.50 0.58 0.59 0.42 0.43 0.46 0.36 0.17 0.07 0.07 0.19 0.12 0.02 0.02 0.02 0.01 0.01 0.00 0.00 0.00 0.00 0.00 0.00 0.00 0.00 0.00 0.00 0.00 0.00 0.00 0.00 0.00 0.01 0.02 0.00 0.00 0.00 0.00 0.00 0.00 0.00 0.00
0.35 0.43 0.42 0.53 0.38 0.42 0.41 0.46 0.39 0.29 0.14 0.12 0.13 0.04 0.00 0.00 0.01 0.02 0.01 0.00 0.00 0.00 0.00 0.00 0.00 0.00 0.00 0.00 0.00 0.00 0.00 0.00 0.00 0.00 0.01 0.06 0.05 0.01 0.00 0.00 0.00 0.00 0.00
0.23 0.39 0.46 0.50 0.44 0.42 0.36 0.32 0.44 0.38 0.29 0.09 0.04 0.03 0.01 0.02 0.02 0.01 0.00 0.00 0.00 0.00 0.00 0.00 0.00 0.00 0.00 0.00 0.00 0.00 0.00 0.00 0.00 0.00 0.00 0.00 0.06 0.11 0.07 0.02 0.01 0.01 0.01
0.11 0.27 0.52 0.52 0.49 0.46 0.50 0.38 0.34 0.34 0.20 0.16 0.07 0.05 0.03 0.02 0.02 0.02 0.01 0.02 0.01 0.00 0.00 0.00 0.00 0.00 0.00 0.00 0.00 0.00 0.00 0.00 0.00 0.00 0.00 0.00 0.00 0.03 0.06 0.07 0.05 0.03 0.02
0.03 0.08 0.19 0.38 0.41 0.46 0.48 0.56 0.46 0.30 0.25 0.18 0.13 0.09 0.06 0.05 0.02 0.01 0.01 0.00 0.01 0.00 0.00 0.00 0.00 0.00 0.00 0.00 0.00 0.00 0.00 0.00 0.00 0.00 0.00 0.00 0.00 0.00 0.00 0.01 0.02 0.04 0.06
0.01 0.02 0.04 0.13 0.29 0.43 0.39 0.48 0.56 0.36 0.27 0.22 0.17 0.15 0.12 0.07 0.02 0.01 0.00 0.01 0.01 0.01 0.01 0.00 0.00 0.00 0.00 0.00 0.00 0.00 0.00 0.00 0.00 0.00 0.00 0.00 0.00 0.00 0.00 0.00 0.00 0.00 0.01
0.01 0.02 0.02 0.06 0.18 0.27 0.32 0.32 0.46 0.44 0.36 0.31 0.27 0.21 0.13 0.07 0.03 0.03 0.03 0.02 0.06 0.04 0.02 0.00 0.00 0.00 0.00 0.00 0.00 0.00 0.00 0.00 0.00 0.00 0.00 0.00 0.00 0.00 0.00 0.00 0.00 0.00 0.01
0.01 0.00 0.03 0.05 0.06 0.12 0.21 0.18 0.20 0.31 0.33 0.26 0.23 0.21 0.13 0.07 0.04 0.03 0.05 0.06 0.08 0.11 0.07 0.00 0.00 0.00 0.02 0.03 0.03 0.01 0.00 0.00 0.00 0.00 0.00 0.00 0.00 0.00 0.01 0.01 0.03 0.05 0.06
0.00 0.01 0.00 0.02 0.04 0.03 0.07 0.13 0.12 0.13 0.13 0.12 0.10 0.10 0.07 0.04 0.05 0.04 0.04 0.06 0.06 0.07 0.09 0.03 0.00 0.00 0.01 0.01 0.01 0.01 0.00 0.00 0.00 0.02 0.04 0.04 0.05 0.05 0.05 0.06 0.07 0.08 0.09
0.01 0.01 0.01 0.00 0.00 0.01 0.01 0.03 0.08 0.07 0.09 0.07 0.05 0.05 0.03 0.02 0.01 0.02 0.02 0.03 0.03 0.02 0.07 0.07 0.02 0.02 0.02 0.02 0.02 0.02 0.00 0.01 0.01 0.04 0.07 0.07 0.08 0.09 0.09 0.09 0.09 0.08 0.07
0.01 0.02 0.03 0.01 0.01 0.01 0.04 0.03 0.03 0.04 0.04 0.07 0.08 0.07 0.06 0.04 0.02 0.02 0.01 0.01 0.01 0.02 0.02 0.02 0.01 0.02 0.02 0.01 0.02 0.01 0.01 0.01 0.00 0.03 0.04 0.07 0.08 0.11 0.15 0.16 0.15 0.13 0.12
0.02 0.02 0.03 0.03 0.02 0.01 0.02 0.05 0.05 0.04 0.02 0.02 0.02 0.02 0.07 0.09 0.05 0.04 0.05 0.03 0.04 0.06 0.07 0.07 0.02 0.03 0.04 0.02 0.06 0.04 0.05 0.04 0.05 0.06 0.08 0.10 0.14 0.15 0.16 0.16 0.17 0.15 0.14
0.04 0.03 0.04 0.05 0.04 0.03 0.03 0.04 0.04 0.05 0.04 0.03 0.04 0.05 0.04 0.02 0.04 0.01 0.02 0.05 0.11 0.12 0.12 0.13 0.10 0.08 0.07 0.05 0.07 0.10 0.15 0.12 0.20 0.25 0.26 0.26 0.28 0.28 0.29 0.35 0.30 0.25 0.22
0.05 0.05 0.05 0.04 0.03 0.02 0.07 0.03 0.02 0.02 0.03 0.06 0.06 0.06 0.05 0.04 0.01 0.00 0.00 0.00 0.02 0.05 0.06 0.07 0.08 0.08 0.04 0.06 0.07 0.11 0.15 0.19 0.22 0.21 0.21 0.24 0.25 0.29 0.33 0.34 0.41 0.40 0.35
0.17 0.16 0.16 0.15 0.14 0.16 0.24 0.14 0.12 0.04 0.07 0.09 0.07 0.08 0.11 0.08 0.07 0.01 0.02 0.03 0.02 0.07 0.12 0.13 0.07 0.08 0.18 0.31 0.34 0.33 0.36 0.45 0.45 0.37 0.32 0.36 0.45 0.51 0.49 0.50 0.59 0.32 0.25
0.20 0.23 0.22 0.21 0.20 0.26 0.32 0.30 0.30 0.14 0.11 0.14 0.14 0.12 0.10 0.08 0.15 0.14 0.06 0.08 0.12 0.21 0.33 0.47 0.69 0.83 0.91 0.76 0.67 0.63 0.57 0.56 0.58 0.64 0.59 0.61 0.58 0.56 0.54 0.51 0.81 0.46 0.29
0.26 0.16 0.18 0.23 0.16 0.16 0.34 0.22 0.23 0.11 0.17 0.20 0.22 0.28 0.27 0.14 0.29 0.19 0.10 0.14 0.19 0.29 0.53 0.52 0.57 0.56 0.55 0.49 0.46 0.45 0.61 0.78 0.87 0.84 0.77 0.69 0.66 0.66 0.64 0.60 0.67 0.70 0.42
0.61 0.52 0.41 0.36 0.38 0.19 0.36 0.27 0.24 0.21 0.30 0.30 0.30 0.34 0.60 0.43 0.44 0.41 0.40 0.43 0.50 0.56 0.58 0.57 0.60 0.58 0.50 0.49 0.62 0.48 0.49 0.79 1.17 1.18 1.02 0.82 0.76 0.77 0.82 0.84 0.75 0.68 0.59